GFSMW_prec_precacc_042.txt.gz
Total_Precipitation_Accumulation
0.02 0.03 0.02 0.02 0.01 0.06 0.02 0.05 0.03 0.01 0.03 0.04 0.01 0.04 0.03 0.03 0.08 0.17 0.06 0.23 0.10 0.10 0.04 0.01 0.00 0.00 0.00 0.00 0.00 0.00 0.00 0.00 0.00 0.00 0.00 0.00 0.00 0.00 0.00 0.00 0.00 0.00 0.00
0.01 0.01 0.00 0.00 0.01 0.04 0.03 0.00 0.00 0.00 0.01 0.01 0.00 0.01 0.02 0.04 0.10 0.14 0.13 0.21 0.19 0.06 0.04 0.01 0.00 0.00 0.00 0.00 0.00 0.00 0.00 0.00 0.00 0.00 0.00 0.00 0.00 0.00 0.00 0.00 0.00 0.00 0.00
0.00 0.00 0.00 0.00 0.01 0.01 0.01 0.01 0.01 0.01 0.00 0.00 0.00 0.00 0.07 0.05 0.07 0.12 0.11 0.11 0.10 0.04 0.06 0.02 0.00 0.00 0.00 0.00 0.00 0.00 0.00 0.00 0.00 0.00 0.00 0.00 0.00 0.00 0.00 0.00 0.00 0.00 0.00
0.00 0.00 0.01 0.01 0.02 0.03 0.03 0.05 0.03 0.03 0.00 0.00 0.00 0.00 0.05 0.05 0.09 0.10 0.05 0.03 0.01 0.06 0.19 0.07 0.02 0.00 0.00 0.00 0.00 0.00 0.00 0.00 0.00 0.01 0.00 0.00 0.00 0.00 0.00 0.00 0.00 0.00 0.00
0.00 0.00 0.01 0.01 0.02 0.04 0.04 0.02 0.02 0.04 0.02 0.01 0.01 0.02 0.05 0.07 0.05 0.02 0.01 0.01 0.03 0.03 0.11 0.09 0.05 0.01 0.03 0.04 0.03 0.02 0.03 0.08 0.11 0.06 0.02 0.01 0.01 0.00 0.00 0.00 0.00 0.00 0.00
0.03 0.04 0.05 0.02 0.03 0.05 0.05 0.06 0.04 0.04 0.07 0.08 0.07 0.04 0.09 0.07 0.03 0.03 0.04 0.04 0.03 0.17 0.21 0.19 0.14 0.09 0.10 0.16 0.17 0.16 0.10 0.06 0.05 0.03 0.02 0.04 0.06 0.04 0.01 0.00 0.00 0.00 0.00
0.00 0.01 0.02 0.02 0.02 0.06 0.04 0.03 0.06 0.14 0.12 0.09 0.08 0.09 0.08 0.07 0.06 0.09 0.20 0.21 0.18 0.30 0.28 0.26 0.22 0.18 0.24 0.22 0.16 0.08 0.05 0.05 0.04 0.07 0.12 0.11 0.06 0.03 0.01 0.00 0.00 0.00 0.00
0.00 0.01 0.03 0.05 0.06 0.04 0.03 0.02 0.08 0.19 0.21 0.16 0.13 0.16 0.19 0.20 0.22 0.27 0.42 0.44 0.34 0.31 0.43 0.38 0.35 0.20 0.12 0.12 0.10 0.08 0.07 0.08 0.10 0.10 0.07 0.05 0.03 0.01 0.00 0.00 0.00 0.00 0.00
0.04 0.05 0.02 0.03 0.06 0.05 0.05 0.09 0.10 0.09 0.14 0.16 0.16 0.21 0.28 0.31 0.43 0.46 0.37 0.35 0.23 0.14 0.21 0.25 0.20 0.15 0.17 0.19 0.18 0.15 0.11 0.08 0.05 0.03 0.02 0.01 0.01 0.00 0.00 0.00 0.00 0.00 0.00
0.00 0.00 0.01 0.00 0.01 0.01 0.05 0.06 0.03 0.06 0.12 0.15 0.16 0.27 0.41 0.42 0.41 0.33 0.42 0.37 0.32 0.33 0.36 0.31 0.25 0.26 0.27 0.24 0.17 0.08 0.04 0.04 0.03 0.02 0.01 0.01 0.02 0.01 0.01 0.01 0.01 0.00 0.00
0.00 0.00 0.01 0.01 0.01 0.00 0.01 0.06 0.11 0.33 0.29 0.36 0.39 0.37 0.46 0.61 0.67 0.60 0.56 0.53 0.48 0.45 0.37 0.30 0.25 0.16 0.10 0.05 0.02 0.02 0.04 0.04 0.03 0.03 0.04 0.03 0.02 0.01 0.02 0.02 0.01 0.00 0.00
0.00 0.00 0.00 0.00 0.01 0.01 0.01 0.02 0.07 0.19 0.35 0.31 0.51 0.73 0.66 0.98 1.49 1.50 1.15 1.24 1.11 0.63 0.18 0.10 0.08 0.05 0.04 0.03 0.01 0.03 0.04 0.05 0.09 0.08 0.04 0.02 0.01 0.01 0.01 0.01 0.00 0.00 0.00
0.00 0.00 0.00 0.00 0.00 0.00 0.04 0.10 0.15 0.27 0.42 0.63 0.76 0.76 0.62 0.99 0.94 0.65 0.47 0.39 0.45 0.26 0.04 0.03 0.06 0.05 0.04 0.03 0.02 0.03 0.09 0.12 0.07 0.05 0.04 0.03 0.02 0.01 0.00 0.00 0.00 0.00 0.01
0.00 0.00 0.00 0.00 0.00 0.05 0.10 0.09 0.09 0.23 0.34 0.37 0.47 0.37 0.30 0.34 0.31 0.23 0.17 0.12 0.08 0.10 0.05 0.04 0.04 0.02 0.02 0.02 0.07 0.10 0.08 0.09 0.09 0.04 0.01 0.00 0.00 0.00 0.00 0.01 0.01 0.02 0.02
0.00 0.00 0.01 0.01 0.01 0.05 0.06 0.04 0.07 0.12 0.16 0.15 0.17 0.13 0.21 0.13 0.12 0.07 0.06 0.04 0.05 0.06 0.04 0.03 0.02 0.02 0.06 0.12 0.13 0.13 0.12 0.04 0.01 0.00 0.00 0.00 0.00 0.00 0.00 0.01 0.01 0.02 0.03
0.00 0.00 0.00 0.01 0.01 0.01 0.01 0.02 0.03 0.06 0.05 0.05 0.08 0.06 0.08 0.07 0.06 0.04 0.02 0.02 0.03 0.02 0.01 0.03 0.05 0.10 0.14 0.15 0.13 0.06 0.01 0.00 0.00 0.00 0.00 0.00 0.00 0.00 0.00 0.00 0.00 0.01 0.03
0.00 0.00 0.00 0.00 0.01 0.01 0.00 0.01 0.01 0.01 0.02 0.05 0.04 0.04 0.04 0.05 0.04 0.04 0.03 0.01 0.00 0.01 0.03 0.07 0.13 0.15 0.13 0.06 0.02 0.01 0.00 0.01 0.00 0.00 0.00 0.00 0.00 0.00 0.00 0.00 0.00 0.01 0.01
0.00 0.00 0.00 0.00 0.00 0.00 0.00 0.00 0.00 0.00 0.01 0.02 0.03 0.03 0.03 0.03 0.04 0.02 0.01 0.02 0.05 0.11 0.15 0.17 0.13 0.06 0.01 0.02 0.04 0.03 0.01 0.01 0.00 0.00 0.00 0.00 0.00 0.00 0.00 0.01 0.02 0.01 0.00
0.00 0.00 0.00 0.00 0.00 0.00 0.00 0.00 0.00 0.01 0.01 0.02 0.02 0.02 0.03 0.03 0.02 0.03 0.09 0.17 0.21 0.18 0.12 0.04 0.01 0.02 0.02 0.04 0.03 0.02 0.00 0.00 0.00 0.00 0.00 0.00 0.00 0.00 0.01 0.01 0.01 0.00 0.00
0.00 0.00 0.00 0.00 0.00 0.00 0.00 0.01 0.01 0.01 0.00 0.00 0.00 0.00 0.01 0.03 0.09 0.18 0.21 0.15 0.07 0.03 0.03 0.04 0.04 0.05 0.02 0.01 0.00 0.00 0.00 0.00 0.00 0.00 0.00 0.00 0.00 0.00 0.00 0.01 0.01 0.02 0.02
0.00 0.00 0.00 0.00 0.00 0.00 0.00 0.00 0.00 0.00 0.00 0.00 0.01 0.03 0.08 0.14 0.16 0.13 0.06 0.03 0.02 0.02 0.01 0.00 0.00 0.00 0.00 0.00 0.00 0.00 0.00 0.00 0.00 0.00 0.00 0.00 0.00 0.00 0.00 0.00 0.01 0.04 0.02
0.00 0.00 0.00 0.00 0.00 0.00 0.00 0.01 0.00 0.00 0.00 0.03 0.07 0.12 0.15 0.12 0.07 0.02 0.00 0.00 0.00 0.00 0.00 0.00 0.00 0.00 0.00 0.00 0.00 0.00 0.00 0.00 0.00 0.00 0.00 0.00 0.00 0.00 0.00 0.00 0.00 0.00 0.00
0.00 0.00 0.00 0.00 0.00 0.00 0.00 0.01 0.02 0.04 0.04 0.06 0.08 0.08 0.04 0.01 0.00 0.00 0.00 0.00 0.00 0.00 0.00 0.00 0.00 0.00 0.01 0.01 0.00 0.00 0.00 0.00 0.00 0.00 0.00 0.00 0.00 0.00 0.00 0.00 0.00 0.00 0.02
0.00 0.00 0.00 0.00 0.02 0.04 0.05 0.05 0.04 0.03 0.02 0.02 0.01 0.00 0.00 0.00 0.00 0.00 0.00 0.00 0.00 0.00 0.00 0.00 0.00 0.01 0.01 0.00 0.00 0.00 0.00 0.00 0.00 0.00 0.00 0.00 0.00 0.01 0.01 0.01 0.02 0.02 0.03
0.03 0.02 0.03 0.05 0.05 0.02 0.01 0.01 0.02 0.01 0.01 0.00 0.00 0.00 0.00 0.00 0.00 0.00 0.00 0.00 0.00 0.00 0.00 0.01 0.01 0.01 0.00 0.00 0.00 0.01 0.01 0.01 0.01 0.02 0.04 0.04 0.05 0.05 0.05 0.05 0.05 0.09 0.12
0.02 0.03 0.03 0.02 0.02 0.01 0.01 0.00 0.00 0.00 0.00 0.00 0.00 0.00 0.00 0.00 0.00 0.00 0.00 0.00 0.00 0.00 0.00 0.00 0.00 0.00 0.00 0.00 0.00 0.00 0.00 0.00 0.01 0.10 0.12 0.08 0.09 0.10 0.08 0.10 0.10 0.14 0.18

GFSMW_prec_precacc_048.txt.gz
Total_Precipitation_Accumulation
0.02 0.03 0.02 0.02 0.01 0.06 0.03 0.06 0.07 0.05 0.14 0.15 0.05 0.05 0.04 0.04 0.08 0.17 0.07 0.23 0.11 0.12 0.06 0.02 0.02 0.01 0.00 0.00 0.00 0.00 0.00 0.00 0.00 0.00 0.00 0.00 0.00 0.00 0.00 0.00 0.00 0.00 0.00
0.01 0.01 0.00 0.00 0.01 0.04 0.03 0.00 0.01 0.02 0.07 0.07 0.06 0.02 0.03 0.04 0.10 0.15 0.13 0.22 0.20 0.07 0.07 0.04 0.01 0.01 0.01 0.00 0.00 0.00 0.00 0.00 0.00 0.00 0.00 0.00 0.00 0.00 0.00 0.00 0.00 0.00 0.00
0.00 0.00 0.00 0.00 0.01 0.01 0.01 0.01 0.01 0.01 0.01 0.01 0.01 0.00 0.07 0.05 0.07 0.12 0.11 0.11 0.10 0.04 0.06 0.03 0.00 0.00 0.00 0.00 0.00 0.00 0.00 0.00 0.00 0.00 0.00 0.00 0.00 0.00 0.00 0.00 0.00 0.00 0.00
0.00 0.00 0.01 0.01 0.02 0.03 0.03 0.05 0.03 0.03 0.00 0.00 0.00 0.00 0.05 0.05 0.09 0.10 0.05 0.03 0.01 0.06 0.19 0.07 0.02 0.00 0.00 0.00 0.01 0.00 0.01 0.01 0.00 0.01 0.01 0.00 0.00 0.00 0.00 0.00 0.00 0.00 0.00
0.00 0.00 0.01 0.01 0.02 0.04 0.04 0.02 0.02 0.04 0.02 0.01 0.01 0.02 0.05 0.07 0.05 0.02 0.01 0.01 0.03 0.03 0.11 0.09 0.06 0.02 0.05 0.08 0.09 0.08 0.10 0.12 0.14 0.09 0.03 0.01 0.01 0.00 0.00 0.00 0.00 0.00 0.00
0.03 0.04 0.05 0.02 0.03 0.05 0.05 0.06 0.04 0.04 0.07 0.08 0.07 0.04 0.09 0.07 0.03 0.03 0.04 0.04 0.03 0.17 0.21 0.19 0.16 0.13 0.14 0.23 0.27 0.26 0.19 0.15 0.09 0.07 0.05 0.05 0.06 0.04 0.01 0.00 0.00 0.00 0.00
0.00 0.01 0.02 0.02 0.02 0.06 0.04 0.03 0.06 0.14 0.12 0.09 0.08 0.09 0.08 0.07 0.06 0.09 0.20 0.21 0.18 0.30 0.28 0.26 0.25 0.22 0.31 0.36 0.30 0.22 0.18 0.16 0.11 0.12 0.15 0.14 0.07 0.04 0.02 0.01 0.00 0.00 0.00
0.00 0.01 0.03 0.05 0.06 0.04 0.03 0.02 0.08 0.19 0.21 0.16 0.13 0.16 0.19 0.20 0.22 0.27 0.42 0.44 0.34 0.31 0.43 0.39 0.42 0.33 0.25 0.27 0.29 0.28 0.28 0.28 0.26 0.22 0.13 0.07 0.04 0.02 0.01 0.01 0.00 0.00 0.00
0.04 0.05 0.02 0.03 0.06 0.05 0.05 0.09 0.10 0.09 0.14 0.16 0.16 0.21 0.28 0.31 0.43 0.46 0.37 0.36 0.27 0.16 0.22 0.30 0.28 0.27 0.40 0.52 0.55 0.50 0.40 0.34 0.25 0.14 0.05 0.03 0.02 0.03 0.02 0.01 0.00 0.01 0.00
0.00 0.00 0.01 0.00 0.01 0.01 0.06 0.07 0.03 0.06 0.12 0.16 0.16 0.27 0.41 0.42 0.41 0.33 0.43 0.38 0.37 0.38 0.46 0.46 0.48 0.52 0.55 0.57 0.51 0.38 0.27 0.20 0.13 0.06 0.05 0.05 0.06 0.04 0.04 0.04 0.03 0.02 0.01
0.00 0.00 0.01 0.01 0.01 0.00 0.02 0.09 0.15 0.35 0.35 0.43 0.53 0.45 0.47 0.62 0.69 0.63 0.60 0.58 0.55 0.55 0.58 0.60 0.52 0.39 0.30 0.32 0.30 0.17 0.14 0.12 0.08 0.07 0.09 0.08 0.08 0.08 0.07 0.06 0.04 0.02 0.01
0.00 0.00 0.00 0.00 0.01 0.01 0.01 0.03 0.09 0.20 0.38 0.43 0.67 0.90 0.76 1.04 1.56 1.62 1.26 1.48 1.49 1.15 0.90 0.68 0.45 0.30 0.18 0.12 0.10 0.06 0.07 0.11 0.13 0.12 0.10 0.09 0.08 0.08 0.07 0.05 0.03 0.02 0.00
0.00 0.00 0.00 0.00 0.00 0.00 0.04 0.10 0.16 0.28 0.45 0.66 0.81 0.84 0.71 1.10 1.02 0.71 0.53 0.42 0.52 0.49 0.30 0.20 0.15 0.11 0.07 0.05 0.04 0.05 0.11 0.14 0.10 0.10 0.10 0.09 0.08 0.06 0.03 0.02 0.01 0.00 0.01
0.00 0.00 0.00 0.00 0.00 0.05 0.10 0.09 0.09 0.23 0.34 0.37 0.47 0.38 0.34 0.40 0.38 0.31 0.24 0.20 0.18 0.17 0.16 0.14 0.15 0.10 0.05 0.05 0.10 0.12 0.11 0.12 0.12 0.08 0.04 0.03 0.01 0.01 0.01 0.01 0.01 0.02 0.02
0.00 0.00 0.01 0.01 0.01 0.05 0.06 0.04 0.07 0.12 0.16 0.15 0.17 0.14 0.23 0.17 0.15 0.10 0.12 0.15 0.17 0.24 0.19 0.18 0.09 0.10 0.14 0.18 0.17 0.15 0.14 0.07 0.03 0.01 0.01 0.01 0.01 0.02 0.01 0.01 0.01 0.02 0.03
0.00 0.00 0.00 0.01 0.01 0.01 0.01 0.02 0.03 0.06 0.05 0.05 0.09 0.07 0.10 0.10 0.11 0.06 0.06 0.09 0.10 0.11 0.14 0.16 0.16 0.18 0.22 0.26 0.19 0.08 0.02 0.01 0.01 0.01 0.00 0.00 0.02 0.00 0.00 0.00 0.00 0.01 0.03
0.00 0.00 0.00 0.00 0.01 0.01 0.00 0.01 0.01 0.01 0.02 0.05 0.04 0.05 0.06 0.08 0.06 0.09 0.06 0.08 0.11 0.09 0.10 0.16 0.23 0.25 0.21 0.15 0.06 0.04 0.01 0.01 0.01 0.00 0.00 0.00 0.01 0.01 0.00 0.00 0.00 0.01 0.01
0.00 0.00 0.00 0.00 0.00 0.00 0.00 0.00 0.00 0.00 0.01 0.03 0.04 0.04 0.05 0.06 0.07 0.07 0.09 0.10 0.12 0.17 0.21 0.22 0.19 0.11 0.05 0.08 0.07 0.05 0.01 0.01 0.00 0.00 0.01 0.01 0.01 0.01 0.00 0.01 0.02 0.01 0.00
0.00 0.00 0.00 0.00 0.00 0.00 0.00 0.00 0.00 0.01 0.01 0.02 0.02 0.04 0.06 0.06 0.06 0.08 0.13 0.22 0.27 0.24 0.16 0.09 0.05 0.05 0.04 0.08 0.05 0.03 0.00 0.00 0.01 0.01 0.01 0.01 0.01 0.01 0.01 0.01 0.01 0.00 0.00
0.00 0.00 0.00 0.00 0.00 0.00 0.00 0.01 0.01 0.01 0.01 0.01 0.01 0.02 0.03 0.05 0.10 0.20 0.23 0.18 0.11 0.06 0.05 0.05 0.05 0.06 0.03 0.04 0.02 0.01 0.00 0.01 0.01 0.01 0.01 0.01 0.00 0.00 0.00 0.01 0.01 0.02 0.02
0.00 0.00 0.00 0.00 0.00 0.00 0.00 0.00 0.00 0.00 0.00 0.01 0.02 0.04 0.08 0.14 0.16 0.13 0.08 0.05 0.03 0.03 0.02 0.01 0.00 0.00 0.00 0.01 0.01 0.01 0.00 0.00 0.00 0.00 0.00 0.00 0.00 0.00 0.00 0.00 0.01 0.04 0.02
0.00 0.00 0.00 0.00 0.00 0.00 0.00 0.01 0.00 0.01 0.02 0.05 0.08 0.12 0.15 0.12 0.07 0.03 0.02 0.02 0.01 0.00 0.00 0.00 0.00 0.00 0.00 0.00 0.01 0.00 0.00 0.00 0.00 0.00 0.00 0.00 0.00 0.00 0.00 0.00 0.00 0.00 0.00
0.00 0.00 0.00 0.00 0.00 0.00 0.00 0.01 0.04 0.07 0.08 0.08 0.10 0.09 0.04 0.01 0.01 0.00 0.01 0.00 0.00 0.00 0.00 0.00 0.00 0.00 0.01 0.01 0.00 0.00 0.00 0.00 0.00 0.00 0.00 0.00 0.00 0.00 0.00 0.00 0.00 0.00 0.02
0.00 0.00 0.00 0.00 0.02 0.04 0.05 0.07 0.08 0.05 0.04 0.03 0.02 0.00 0.00 0.00 0.00 0.00 0.00 0.00 0.00 0.00 0.00 0.00 0.00 0.01 0.01 0.00 0.00 0.00 0.00 0.00 0.00 0.00 0.00 0.00 0.00 0.01 0.01 0.01 0.02 0.02 0.03
0.03 0.02 0.03 0.05 0.05 0.03 0.02 0.03 0.03 0.01 0.01 0.00 0.00 0.00 0.00 0.00 0.00 0.00 0.00 0.00 0.00 0.00 0.00 0.01 0.01 0.01 0.00 0.00 0.00 0.01 0.01 0.01 0.01 0.02 0.04 0.04 0.05 0.05 0.05 0.05 0.05 0.09 0.12
0.03 0.03 0.03 0.02 0.02 0.02 0.01 0.00 0.00 0.00 0.00 0.00 0.00 0.00 0.00 0.00 0.00 0.00 0.00 0.00 0.00 0.00 0.00 0.00 0.00 0.00 0.00 0.00 0.00 0.00 0.00 0.00 0.01 0.10 0.12 0.08 0.09 0.10 0.08 0.10 0.10 0.14 0.18

GFSMW_prec_precacc_054.txt.gz
Total_Precipitation_Accumulation
0.02 0.03 0.02 0.02 0.01 0.06 0.03 0.09 0.23 0.19 0.34 0.31 0.16 0.14 0.10 0.07 0.10 0.18 0.07 0.23 0.11 0.12 0.06 0.02 0.02 0.01 0.01 0.01 0.01 0.00 0.00 0.00 0.00 0.00 0.00 0.00 0.00 0.00 0.00 0.00 0.00 0.00 0.00
0.01 0.01 0.00 0.00 0.01 0.04 0.03 0.01 0.03 0.07 0.17 0.22 0.22 0.08 0.05 0.05 0.10 0.15 0.15 0.22 0.20 0.07 0.07 0.05 0.04 0.03 0.02 0.00 0.01 0.00 0.00 0.00 0.00 0.00 0.00 0.00 0.00 0.00 0.00 0.00 0.00 0.00 0.00
0.00 0.00 0.00 0.00 0.01 0.01 0.01 0.01 0.01 0.03 0.04 0.11 0.21 0.14 0.16 0.10 0.09 0.13 0.12 0.11 0.11 0.05 0.06 0.04 0.03 0.04 0.03 0.01 0.00 0.00 0.00 0.00 0.00 0.00 0.00 0.00 0.00 0.00 0.00 0.00 0.00 0.00 0.00
0.00 0.00 0.01 0.01 0.02 0.03 0.03 0.05 0.03 0.03 0.01 0.02 0.05 0.04 0.09 0.07 0.10 0.10 0.05 0.03 0.01 0.07 0.19 0.07 0.02 0.01 0.01 0.01 0.03 0.02 0.02 0.01 0.01 0.01 0.01 0.00 0.00 0.00 0.01 0.00 0.00 0.00 0.00
0.00 0.00 0.01 0.01 0.02 0.04 0.04 0.03 0.03 0.04 0.02 0.01 0.02 0.03 0.06 0.07 0.05 0.02 0.01 0.01 0.03 0.03 0.11 0.09 0.06 0.03 0.05 0.08 0.11 0.11 0.12 0.14 0.18 0.11 0.04 0.02 0.01 0.01 0.02 0.02 0.01 0.01 0.00
0.03 0.04 0.05 0.02 0.03 0.05 0.05 0.06 0.04 0.04 0.07 0.08 0.07 0.04 0.09 0.07 0.03 0.03 0.04 0.04 0.03 0.17 0.21 0.19 0.16 0.16 0.15 0.23 0.30 0.31 0.21 0.17 0.13 0.13 0.08 0.07 0.08 0.05 0.02 0.01 0.02 0.03 0.02
0.00 0.01 0.02 0.02 0.02 0.06 0.04 0.03 0.06 0.14 0.12 0.09 0.08 0.09 0.08 0.07 0.06 0.09 0.20 0.21 0.18 0.30 0.28 0.26 0.25 0.22 0.31 0.36 0.31 0.25 0.20 0.20 0.15 0.17 0.23 0.19 0.11 0.08 0.05 0.04 0.06 0.08 0.06
0.00 0.01 0.03 0.05 0.06 0.04 0.03 0.02 0.08 0.19 0.21 0.16 0.13 0.16 0.19 0.20 0.22 0.27 0.42 0.44 0.34 0.31 0.43 0.39 0.42 0.33 0.25 0.27 0.29 0.28 0.28 0.29 0.29 0.30 0.26 0.24 0.19 0.16 0.19 0.24 0.29 0.28 0.16
0.04 0.05 0.02 0.03 0.06 0.05 0.05 0.09 0.10 0.09 0.14 0.16 0.16 0.21 0.28 0.31 0.43 0.46 0.37 0.36 0.27 0.16 0.22 0.30 0.28 0.27 0.40 0.52 0.55 0.50 0.40 0.36 0.29 0.23 0.18 0.14 0.10 0.11 0.12 0.13 0.14 0.17 0.21
0.00 0.00 0.01 0.00 0.01 0.01 0.06 0.07 0.03 0.06 0.12 0.16 0.16 0.27 0.41 0.42 0.41 0.33 0.43 0.38 0.37 0.38 0.46 0.46 0.48 0.52 0.55 0.57 0.51 0.40 0.30 0.25 0.19 0.15 0.13 0.13 0.14 0.14 0.15 0.16 0.16 0.16 0.22
0.00 0.00 0.01 0.01 0.01 0.00 0.02 0.09 0.15 0.35 0.35 0.43 0.53 0.45 0.47 0.62 0.69 0.63 0.60 0.58 0.55 0.55 0.58 0.60 0.52 0.39 0.30 0.33 0.38 0.42 0.47 0.46 0.39 0.34 0.31 0.25 0.26 0.27 0.25 0.25 0.21 0.16 0.14
0.00 0.00 0.00 0.00 0.01 0.01 0.01 0.03 0.09 0.20 0.38 0.43 0.67 0.92 0.77 1.04 1.56 1.62 1.26 1.48 1.49 1.15 0.90 0.68 0.45 0.30 0.19 0.13 0.13 0.19 0.21 0.24 0.29 0.29 0.28 0.26 0.31 0.36 0.29 0.19 0.12 0.09 0.07
0.00 0.00 0.00 0.00 0.00 0.00 0.04 0.10 0.16 0.28 0.45 0.66 0.81 0.84 0.74 1.13 1.03 0.71 0.53 0.42 0.52 0.49 0.30 0.20 0.15 0.11 0.07 0.05 0.05 0.09 0.20 0.27 0.20 0.17 0.16 0.13 0.12 0.09 0.07 0.07 0.06 0.06 0.06
0.00 0.00 0.00 0.00 0.00 0.05 0.10 0.09 0.09 0.23 0.34 0.37 0.47 0.38 0.34 0.41 0.40 0.33 0.24 0.20 0.18 0.17 0.16 0.15 0.16 0.12 0.06 0.05 0.10 0.12 0.11 0.13 0.13 0.09 0.05 0.05 0.04 0.04 0.05 0.07 0.07 0.06 0.06
0.00 0.00 0.01 0.01 0.01 0.05 0.06 0.04 0.07 0.12 0.16 0.15 0.17 0.14 0.23 0.17 0.15 0.10 0.12 0.15 0.18 0.25 0.21 0.21 0.12 0.12 0.16 0.19 0.20 0.16 0.15 0.08 0.05 0.03 0.02 0.03 0.06 0.08 0.04 0.02 0.02 0.02 0.03
0.00 0.00 0.00 0.01 0.01 0.01 0.01 0.02 0.03 0.06 0.05 0.05 0.09 0.07 0.10 0.10 0.11 0.06 0.06 0.09 0.11 0.13 0.18 0.22 0.24 0.25 0.28 0.37 0.33 0.18 0.08 0.05 0.04 0.04 0.03 0.04 0.08 0.03 0.05 0.04 0.03 0.02 0.03
0.00 0.00 0.00 0.00 0.01 0.01 0.00 0.01 0.01 0.01 0.02 0.05 0.04 0.05 0.06 0.08 0.06 0.09 0.06 0.08 0.12 0.10 0.13 0.18 0.28 0.33 0.31 0.32 0.20 0.18 0.08 0.09 0.10 0.06 0.05 0.04 0.05 0.09 0.02 0.05 0.04 0.02 0.01
0.00 0.00 0.00 0.00 0.00 0.00 0.00 0.00 0.00 0.00 0.01 0.03 0.04 0.04 0.05 0.06 0.07 0.07 0.09 0.11 0.12 0.20 0.24 0.26 0.24 0.15 0.12 0.21 0.18 0.16 0.05 0.04 0.04 0.04 0.04 0.04 0.04 0.04 0.04 0.02 0.02 0.01 0.01
0.00 0.00 0.00 0.00 0.00 0.00 0.00 0.00 0.00 0.01 0.01 0.02 0.02 0.04 0.06 0.06 0.06 0.08 0.13 0.22 0.28 0.27 0.22 0.13 0.11 0.10 0.13 0.23 0.13 0.08 0.01 0.02 0.03 0.03 0.04 0.05 0.04 0.10 0.09 0.03 0.01 0.00 0.00
0.00 0.00 0.00 0.00 0.00 0.00 0.00 0.01 0.01 0.01 0.01 0.01 0.01 0.02 0.03 0.05 0.10 0.21 0.24 0.19 0.13 0.09 0.08 0.10 0.10 0.17 0.09 0.17 0.09 0.06 0.01 0.02 0.03 0.03 0.05 0.10 0.05 0.06 0.03 0.02 0.01 0.02 0.02
0.00 0.00 0.00 0.00 0.00 0.00 0.00 0.00 0.00 0.00 0.00 0.01 0.02 0.06 0.10 0.17 0.20 0.15 0.08 0.06 0.05 0.04 0.04 0.04 0.03 0.04 0.07 0.09 0.10 0.07 0.01 0.01 0.03 0.04 0.04 0.05 0.08 0.03 0.01 0.01 0.01 0.04 0.02
0.00 0.00 0.00 0.00 0.00 0.00 0.00 0.01 0.00 0.01 0.02 0.06 0.11 0.17 0.21 0.19 0.13 0.08 0.07 0.05 0.03 0.03 0.03 0.03 0.03 0.03 0.05 0.09 0.09 0.07 0.06 0.06 0.01 0.02 0.02 0.04 0.06 0.01 0.00 0.00 0.00 0.00 0.00
0.00 0.00 0.00 0.00 0.00 0.00 0.00 0.01 0.04 0.07 0.09 0.12 0.15 0.17 0.13 0.07 0.05 0.04 0.04 0.03 0.03 0.04 0.06 0.05 0.06 0.07 0.07 0.09 0.11 0.09 0.07 0.05 0.02 0.01 0.02 0.03 0.02 0.00 0.00 0.00 0.00 0.00 0.02
0.01 0.00 0.00 0.00 0.02 0.04 0.05 0.07 0.09 0.07 0.06 0.05 0.09 0.06 0.05 0.06 0.03 0.02 0.02 0.02 0.03 0.04 0.05 0.05 0.05 0.06 0.07 0.08 0.08 0.05 0.02 0.01 0.00 0.01 0.01 0.00 0.01 0.01 0.01 0.01 0.02 0.02 0.03
0.05 0.03 0.03 0.07 0.07 0.05 0.04 0.05 0.06 0.07 0.07 0.05 0.04 0.02 0.02 0.01 0.00 0.00 0.02 0.02 0.02 0.04 0.02 0.03 0.04 0.04 0.04 0.03 0.02 0.02 0.01 0.03 0.04 0.05 0.06 0.05 0.05 0.05 0.05 0.05 0.05 0.09 0.12
0.18 0.09 0.06 0.04 0.05 0.08 0.11 0.09 0.07 0.06 0.05 0.02 0.01 0.02 0.00 0.00 0.01 0.01 0.03 0.05 0.05 0.04 0.02 0.03 0.03 0.05 0.06 0.06 0.07 0.07 0.06 0.05 0.04 0.12 0.14 0.09 0.09 0.11 0.09 0.11 0.11 0.15 0.20

GFSMW_prec_precacc_057.txt.gz
Total_Precipitation_Accumulation
0.02 0.03 0.02 0.02 0.01 0.06 0.04 0.10 0.23 0.20 0.34 0.32 0.18 0.19 0.17 0.14 0.14 0.19 0.08 0.23 0.11 0.12 0.06 0.02 0.02 0.01 0.01 0.01 0.01 0.00 0.00 0.00 0.00 0.00 0.00 0.00 0.00 0.00 0.00 0.00 0.00 0.00 0.00
0.01 0.01 0.00 0.00 0.01 0.05 0.04 0.01 0.03 0.08 0.18 0.23 0.23 0.09 0.07 0.08 0.11 0.15 0.15 0.22 0.22 0.07 0.07 0.05 0.04 0.03 0.02 0.00 0.01 0.00 0.00 0.00 0.00 0.00 0.00 0.00 0.00 0.00 0.00 0.00 0.00 0.00 0.00
0.00 0.00 0.00 0.00 0.01 0.01 0.01 0.01 0.02 0.03 0.05 0.13 0.23 0.15 0.18 0.12 0.11 0.14 0.13 0.11 0.14 0.05 0.06 0.04 0.03 0.04 0.03 0.01 0.00 0.00 0.00 0.00 0.00 0.00 0.00 0.00 0.00 0.00 0.00 0.00 0.00 0.00 0.00
0.00 0.00 0.01 0.01 0.02 0.03 0.03 0.06 0.04 0.03 0.01 0.02 0.05 0.05 0.12 0.09 0.11 0.10 0.05 0.03 0.04 0.09 0.19 0.07 0.02 0.01 0.01 0.01 0.03 0.02 0.02 0.01 0.01 0.01 0.01 0.00 0.00 0.01 0.03 0.01 0.00 0.00 0.00
0.00 0.00 0.01 0.01 0.02 0.04 0.04 0.03 0.03 0.05 0.02 0.02 0.02 0.03 0.06 0.08 0.06 0.02 0.02 0.02 0.05 0.07 0.12 0.09 0.06 0.04 0.06 0.09 0.11 0.11 0.12 0.14 0.19 0.13 0.04 0.02 0.01 0.01 0.03 0.06 0.04 0.01 0.00
0.03 0.04 0.05 0.02 0.03 0.05 0.05 0.06 0.05 0.04 0.07 0.08 0.08 0.04 0.09 0.07 0.03 0.03 0.04 0.04 0.04 0.20 0.24 0.20 0.16 0.17 0.21 0.29 0.34 0.39 0.26 0.19 0.18 0.21 0.12 0.13 0.12 0.07 0.05 0.03 0.04 0.07 0.04
0.00 0.01 0.02 0.02 0.02 0.06 0.04 0.03 0.06 0.15 0.13 0.09 0.08 0.10 0.08 0.07 0.06 0.09 0.20 0.21 0.18 0.30 0.29 0.26 0.25 0.23 0.33 0.40 0.36 0.35 0.30 0.28 0.23 0.23 0.31 0.25 0.13 0.08 0.07 0.07 0.06 0.09 0.07
0.00 0.01 0.03 0.05 0.06 0.04 0.03 0.02 0.08 0.19 0.21 0.16 0.13 0.16 0.19 0.20 0.22 0.27 0.42 0.44 0.34 0.31 0.43 0.39 0.42 0.33 0.25 0.27 0.30 0.30 0.31 0.32 0.32 0.31 0.29 0.27 0.21 0.17 0.19 0.24 0.29 0.28 0.19
0.04 0.05 0.02 0.03 0.06 0.05 0.05 0.09 0.10 0.09 0.14 0.16 0.17 0.22 0.28 0.32 0.43 0.46 0.37 0.36 0.27 0.16 0.22 0.30 0.28 0.27 0.40 0.52 0.56 0.50 0.41 0.37 0.29 0.23 0.18 0.14 0.10 0.12 0.13 0.13 0.14 0.18 0.24
0.00 0.00 0.01 0.00 0.01 0.01 0.06 0.07 0.03 0.06 0.12 0.16 0.16 0.27 0.41 0.42 0.41 0.33 0.43 0.38 0.37 0.38 0.46 0.46 0.48 0.52 0.55 0.57 0.51 0.40 0.30 0.25 0.20 0.15 0.14 0.14 0.15 0.15 0.17 0.16 0.16 0.19 0.29
0.00 0.00 0.01 0.01 0.01 0.00 0.02 0.09 0.15 0.35 0.35 0.43 0.53 0.45 0.47 0.62 0.69 0.63 0.60 0.58 0.55 0.55 0.58 0.60 0.52 0.39 0.30 0.33 0.38 0.42 0.47 0.46 0.39 0.35 0.31 0.25 0.26 0.28 0.26 0.27 0.26 0.24 0.26
0.00 0.00 0.00 0.00 0.01 0.01 0.01 0.03 0.09 0.20 0.38 0.43 0.67 0.92 0.77 1.04 1.56 1.62 1.26 1.48 1.49 1.15 0.90 0.68 0.45 0.30 0.19 0.13 0.13 0.19 0.21 0.24 0.29 0.29 0.30 0.27 0.31 0.37 0.32 0.25 0.18 0.14 0.11
0.00 0.00 0.00 0.00 0.00 0.00 0.04 0.10 0.16 0.28 0.45 0.66 0.81 0.84 0.74 1.13 1.03 0.71 0.53 0.42 0.52 0.49 0.30 0.20 0.15 0.11 0.07 0.05 0.05 0.09 0.20 0.27 0.20 0.18 0.18 0.14 0.13 0.10 0.07 0.07 0.07 0.08 0.09
0.00 0.00 0.00 0.00 0.00 0.05 0.10 0.09 0.09 0.23 0.34 0.37 0.47 0.38 0.34 0.41 0.40 0.33 0.24 0.20 0.18 0.17 0.16 0.15 0.16 0.12 0.06 0.05 0.10 0.12 0.11 0.13 0.13 0.09 0.06 0.07 0.05 0.05 0.06 0.08 0.07 0.07 0.08
0.00 0.00 0.01 0.01 0.01 0.05 0.06 0.04 0.07 0.12 0.16 0.15 0.17 0.14 0.23 0.17 0.15 0.11 0.13 0.15 0.18 0.25 0.21 0.21 0.12 0.12 0.16 0.19 0.20 0.16 0.15 0.08 0.05 0.03 0.03 0.04 0.08 0.09 0.05 0.03 0.02 0.03 0.04
0.00 0.00 0.00 0.01 0.01 0.01 0.01 0.02 0.03 0.06 0.05 0.05 0.09 0.07 0.10 0.10 0.11 0.06 0.06 0.09 0.11 0.13 0.18 0.22 0.24 0.25 0.28 0.37 0.33 0.18 0.08 0.05 0.05 0.04 0.05 0.06 0.11 0.06 0.07 0.05 0.04 0.03 0.04
0.00 0.00 0.00 0.00 0.01 0.01 0.00 0.01 0.01 0.01 0.02 0.05 0.04 0.05 0.06 0.08 0.06 0.09 0.06 0.08 0.12 0.10 0.13 0.18 0.28 0.33 0.31 0.32 0.21 0.19 0.09 0.10 0.11 0.07 0.07 0.06 0.08 0.14 0.04 0.09 0.08 0.06 0.06
0.00 0.00 0.00 0.00 0.00 0.00 0.00 0.00 0.00 0.00 0.01 0.03 0.04 0.04 0.05 0.06 0.07 0.07 0.09 0.11 0.12 0.20 0.24 0.26 0.24 0.16 0.13 0.22 0.20 0.19 0.07 0.06 0.06 0.06 0.06 0.06 0.07 0.11 0.12 0.08 0.08 0.07 0.09
0.00 0.00 0.00 0.00 0.00 0.00 0.00 0.00 0.00 0.01 0.01 0.02 0.02 0.04 0.06 0.06 0.06 0.08 0.13 0.22 0.28 0.27 0.22 0.13 0.11 0.11 0.14 0.26 0.17 0.12 0.04 0.06 0.09 0.06 0.07 0.10 0.07 0.22 0.18 0.11 0.12 0.13 0.11
0.00 0.00 0.00 0.00 0.00 0.00 0.00 0.01 0.01 0.01 0.01 0.01 0.01 0.02 0.03 0.05 0.10 0.21 0.24 0.19 0.13 0.09 0.08 0.10 0.10 0.18 0.10 0.26 0.17 0.11 0.02 0.05 0.06 0.05 0.09 0.17 0.10 0.14 0.08 0.04 0.04 0.05 0.06
0.00 0.00 0.00 0.00 0.00 0.00 0.00 0.00 0.00 0.00 0.00 0.01 0.02 0.06 0.10 0.17 0.20 0.15 0.08 0.06 0.05 0.05 0.04 0.04 0.03 0.04 0.09 0.14 0.15 0.11 0.03 0.02 0.06 0.09 0.10 0.15 0.20 0.12 0.08 0.06 0.05 0.09 0.06
0.00 0.00 0.00 0.00 0.00 0.00 0.00 0.01 0.00 0.01 0.02 0.06 0.11 0.17 0.21 0.19 0.13 0.08 0.07 0.06 0.04 0.04 0.04 0.04 0.04 0.04 0.06 0.12 0.12 0.10 0.10 0.13 0.06 0.10 0.12 0.18 0.21 0.12 0.10 0.07 0.05 0.03 0.02
0.00 0.00 0.00 0.00 0.00 0.00 0.00 0.01 0.04 0.07 0.09 0.12 0.15 0.17 0.13 0.07 0.05 0.05 0.06 0.06 0.06 0.07 0.08 0.07 0.09 0.10 0.09 0.12 0.15 0.13 0.12 0.12 0.10 0.14 0.18 0.20 0.17 0.12 0.08 0.04 0.01 0.01 0.02
0.01 0.00 0.00 0.00 0.02 0.04 0.05 0.07 0.09 0.07 0.06 0.06 0.09 0.06 0.05 0.08 0.05 0.05 0.05 0.06 0.06 0.07 0.07 0.06 0.07 0.09 0.10 0.12 0.13 0.12 0.11 0.12 0.13 0.15 0.14 0.12 0.08 0.05 0.03 0.03 0.03 0.03 0.04
0.06 0.04 0.04 0.07 0.07 0.06 0.07 0.08 0.08 0.10 0.12 0.08 0.07 0.06 0.06 0.06 0.05 0.05 0.08 0.05 0.06 0.08 0.05 0.05 0.07 0.07 0.07 0.10 0.10 0.09 0.08 0.09 0.11 0.12 0.13 0.11 0.09 0.08 0.07 0.06 0.06 0.09 0.12
0.21 0.18 0.16 0.12 0.12 0.13 0.17 0.17 0.15 0.14 0.14 0.11 0.10 0.11 0.09 0.07 0.07 0.05 0.08 0.13 0.13 0.13 0.12 0.13 0.12 0.17 0.18 0.21 0.19 0.16 0.13 0.11 0.09 0.16 0.17 0.12 0.12 0.12 0.10 0.12 0.13 0.16 0.20

GFSMW_prec_precacc_060.txt.gz
Total_Precipitation_Accumulation
0.02 0.03 0.02 0.02 0.01 0.06 0.04 0.10 0.24 0.21 0.35 0.32 0.19 0.24 0.29 0.43 0.28 0.25 0.09 0.23 0.11 0.12 0.06 0.02 0.02 0.01 0.01 0.01 0.01 0.00 0.00 0.00 0.00 0.00 0.00 0.00 0.00 0.00 0.00 0.00 0.00 0.00 0.00
0.01 0.01 0.00 0.00 0.01 0.05 0.04 0.02 0.03 0.08 0.18 0.23 0.23 0.10 0.11 0.15 0.18 0.17 0.16 0.23 0.22 0.07 0.07 0.05 0.04 0.03 0.02 0.00 0.01 0.00 0.00 0.00 0.00 0.00 0.00 0.00 0.00 0.00 0.00 0.00 0.00 0.00 0.00
0.00 0.00 0.00 0.00 0.01 0.01 0.01 0.02 0.02 0.03 0.05 0.13 0.23 0.16 0.18 0.14 0.14 0.15 0.13 0.11 0.14 0.05 0.06 0.04 0.03 0.04 0.03 0.01 0.00 0.00 0.00 0.00 0.00 0.00 0.00 0.00 0.00 0.00 0.00 0.00 0.00 0.00 0.00
0.00 0.00 0.01 0.01 0.02 0.03 0.03 0.06 0.04 0.03 0.01 0.03 0.06 0.06 0.12 0.10 0.11 0.10 0.06 0.04 0.05 0.10 0.19 0.07 0.02 0.01 0.01 0.02 0.04 0.02 0.02 0.02 0.01 0.01 0.01 0.00 0.03 0.09 0.08 0.01 0.00 0.00 0.00
0.00 0.00 0.01 0.01 0.02 0.04 0.04 0.03 0.03 0.05 0.02 0.02 0.02 0.03 0.06 0.08 0.06 0.02 0.02 0.02 0.06 0.08 0.12 0.09 0.06 0.04 0.06 0.09 0.15 0.12 0.13 0.14 0.21 0.14 0.04 0.02 0.01 0.01 0.10 0.10 0.05 0.01 0.00
0.03 0.04 0.05 0.02 0.03 0.05 0.05 0.06 0.05 0.05 0.08 0.08 0.08 0.04 0.09 0.07 0.03 0.03 0.04 0.04 0.04 0.20 0.25 0.20 0.17 0.18 0.22 0.30 0.36 0.40 0.26 0.19 0.19 0.27 0.16 0.16 0.14 0.08 0.06 0.05 0.06 0.10 0.05
0.00 0.01 0.02 0.02 0.02 0.06 0.04 0.03 0.06 0.15 0.13 0.09 0.08 0.10 0.08 0.07 0.06 0.09 0.20 0.21 0.18 0.31 0.30 0.28 0.26 0.24 0.34 0.40 0.36 0.36 0.32 0.33 0.29 0.30 0.34 0.29 0.17 0.10 0.10 0.13 0.08 0.12 0.10
0.00 0.01 0.03 0.05 0.06 0.04 0.03 0.02 0.08 0.19 0.21 0.16 0.13 0.16 0.20 0.20 0.22 0.27 0.42 0.44 0.34 0.31 0.43 0.40 0.42 0.34 0.25 0.28 0.31 0.31 0.31 0.34 0.36 0.37 0.32 0.28 0.22 0.18 0.20 0.26 0.33 0.30 0.20
0.04 0.05 0.02 0.03 0.06 0.05 0.05 0.09 0.10 0.09 0.14 0.16 0.17 0.22 0.28 0.32 0.43 0.46 0.37 0.36 0.27 0.16 0.22 0.30 0.29 0.28 0.41 0.53 0.57 0.52 0.43 0.41 0.30 0.24 0.20 0.16 0.11 0.15 0.15 0.14 0.17 0.20 0.25
0.00 0.00 0.01 0.00 0.01 0.01 0.06 0.07 0.03 0.06 0.12 0.16 0.16 0.27 0.41 0.42 0.41 0.33 0.43 0.38 0.37 0.38 0.46 0.46 0.49 0.55 0.57 0.58 0.52 0.41 0.31 0.28 0.22 0.16 0.15 0.15 0.16 0.16 0.18 0.19 0.18 0.22 0.30
0.00 0.00 0.01 0.01 0.01 0.00 0.02 0.09 0.15 0.35 0.35 0.43 0.53 0.45 0.47 0.62 0.69 0.63 0.60 0.58 0.55 0.55 0.58 0.60 0.52 0.39 0.31 0.33 0.38 0.42 0.47 0.46 0.39 0.35 0.31 0.25 0.28 0.30 0.28 0.28 0.27 0.25 0.26
0.00 0.00 0.00 0.00 0.01 0.01 0.01 0.03 0.09 0.20 0.38 0.43 0.67 0.92 0.77 1.04 1.56 1.62 1.26 1.48 1.49 1.15 0.90 0.68 0.45 0.30 0.19 0.13 0.13 0.19 0.21 0.24 0.29 0.29 0.30 0.27 0.32 0.39 0.34 0.27 0.20 0.14 0.12
0.00 0.00 0.00 0.00 0.00 0.00 0.04 0.10 0.16 0.28 0.45 0.66 0.81 0.84 0.74 1.13 1.03 0.71 0.53 0.42 0.52 0.49 0.30 0.20 0.15 0.11 0.07 0.05 0.05 0.09 0.20 0.27 0.20 0.18 0.18 0.15 0.14 0.12 0.10 0.10 0.09 0.09 0.10
0.00 0.00 0.00 0.00 0.00 0.05 0.10 0.09 0.09 0.23 0.35 0.37 0.47 0.38 0.34 0.41 0.40 0.33 0.24 0.20 0.18 0.17 0.16 0.15 0.16 0.12 0.06 0.05 0.10 0.12 0.11 0.13 0.13 0.09 0.06 0.07 0.07 0.07 0.07 0.10 0.10 0.10 0.09
0.00 0.00 0.01 0.01 0.01 0.05 0.06 0.04 0.07 0.12 0.16 0.15 0.17 0.14 0.23 0.17 0.15 0.11 0.13 0.15 0.18 0.25 0.21 0.21 0.12 0.12 0.16 0.19 0.20 0.16 0.15 0.08 0.05 0.03 0.03 0.04 0.08 0.09 0.06 0.04 0.04 0.05 0.08
0.00 0.00 0.00 0.01 0.01 0.01 0.01 0.02 0.03 0.06 0.05 0.05 0.09 0.07 0.10 0.10 0.11 0.06 0.06 0.09 0.11 0.13 0.18 0.22 0.24 0.25 0.28 0.37 0.33 0.18 0.08 0.05 0.05 0.04 0.05 0.06 0.11 0.06 0.09 0.10 0.10 0.09 0.10
0.00 0.00 0.00 0.00 0.01 0.01 0.00 0.01 0.01 0.01 0.02 0.05 0.04 0.05 0.06 0.08 0.06 0.09 0.06 0.08 0.12 0.10 0.13 0.19 0.28 0.33 0.31 0.32 0.21 0.19 0.09 0.10 0.11 0.08 0.07 0.06 0.09 0.15 0.06 0.15 0.16 0.14 0.17
0.00 0.00 0.00 0.00 0.00 0.00 0.00 0.00 0.00 0.00 0.01 0.03 0.04 0.04 0.05 0.06 0.07 0.07 0.09 0.11 0.12 0.20 0.24 0.26 0.25 0.16 0.13 0.23 0.20 0.19 0.08 0.06 0.06 0.07 0.07 0.07 0.08 0.14 0.16 0.13 0.19 0.21 0.25
0.00 0.00 0.00 0.00 0.00 0.00 0.00 0.00 0.00 0.01 0.01 0.02 0.02 0.04 0.06 0.06 0.06 0.08 0.13 0.22 0.28 0.27 0.22 0.13 0.11 0.11 0.14 0.26 0.17 0.13 0.04 0.07 0.10 0.08 0.11 0.16 0.13 0.37 0.30 0.18 0.21 0.24 0.24
0.00 0.00 0.00 0.00 0.00 0.00 0.00 0.01 0.01 0.01 0.01 0.01 0.01 0.02 0.03 0.05 0.10 0.21 0.24 0.19 0.13 0.09 0.08 0.10 0.10 0.18 0.10 0.27 0.19 0.13 0.03 0.09 0.11 0.11 0.17 0.31 0.17 0.27 0.15 0.09 0.06 0.11 0.13
0.00 0.00 0.00 0.00 0.00 0.00 0.00 0.00 0.00 0.00 0.00 0.01 0.02 0.06 0.10 0.17 0.20 0.15 0.08 0.06 0.05 0.05 0.04 0.04 0.03 0.05 0.11 0.16 0.19 0.16 0.05 0.05 0.10 0.15 0.16 0.23 0.34 0.21 0.19 0.16 0.13 0.21 0.22
0.00 0.00 0.00 0.00 0.00 0.00 0.00 0.01 0.00 0.01 0.02 0.06 0.11 0.17 0.21 0.19 0.13 0.08 0.07 0.06 0.04 0.04 0.04 0.04 0.05 0.05 0.08 0.16 0.16 0.14 0.14 0.18 0.10 0.16 0.18 0.29 0.34 0.20 0.20 0.20 0.21 0.21 0.19
0.00 0.00 0.00 0.00 0.00 0.00 0.00 0.01 0.04 0.07 0.09 0.12 0.15 0.17 0.13 0.07 0.05 0.06 0.08 0.08 0.06 0.07 0.09 0.08 0.10 0.13 0.13 0.16 0.21 0.19 0.20 0.21 0.21 0.28 0.33 0.35 0.29 0.22 0.21 0.20 0.18 0.16 0.15
0.01 0.00 0.00 0.00 0.02 0.04 0.05 0.07 0.09 0.07 0.06 0.06 0.09 0.07 0.06 0.08 0.05 0.08 0.09 0.08 0.08 0.10 0.12 0.14 0.16 0.17 0.19 0.21 0.22 0.20 0.20 0.23 0.23 0.25 0.27 0.24 0.21 0.18 0.17 0.16 0.13 0.11 0.09
0.06 0.04 0.04 0.07 0.08 0.06 0.07 0.08 0.08 0.10 0.13 0.11 0.11 0.10 0.09 0.09 0.08 0.09 0.13 0.11 0.13 0.19 0.17 0.18 0.18 0.19 0.22 0.27 0.28 0.25 0.24 0.25 0.26 0.27 0.28 0.26 0.23 0.19 0.16 0.12 0.10 0.13 0.15
0.21 0.18 0.16 0.13 0.12 0.14 0.19 0.19 0.17 0.16 0.17 0.16 0.17 0.20 0.15 0.14 0.13 0.11 0.16 0.28 0.29 0.27 0.30 0.32 0.29 0.39 0.44 0.49 0.48 0.44 0.39 0.31 0.26 0.29 0.30 0.23 0.20 0.19 0.16 0.17 0.16 0.17 0.21

GFSMW_prec_precacc_063.txt.gz
Total_Precipitation_Accumulation
0.02 0.03 0.02 0.02 0.01 0.06 0.04 0.10 0.24 0.21 0.35 0.32 0.20 0.25 0.31 0.49 0.33 0.34 0.12 0.24 0.11 0.12 0.07 0.02 0.03 0.02 0.04 0.01 0.01 0.00 0.00 0.00 0.00 0.00 0.00 0.00 0.00 0.00 0.00 0.00 0.00 0.00 0.00
0.01 0.01 0.00 0.00 0.01 0.05 0.04 0.02 0.03 0.08 0.18 0.23 0.23 0.10 0.12 0.17 0.22 0.23 0.21 0.23 0.22 0.07 0.07 0.05 0.04 0.04 0.04 0.02 0.01 0.00 0.00 0.00 0.00 0.00 0.00 0.00 0.00 0.00 0.00 0.00 0.00 0.00 0.00
0.00 0.00 0.00 0.00 0.01 0.01 0.01 0.02 0.02 0.03 0.05 0.13 0.24 0.16 0.19 0.15 0.18 0.17 0.14 0.11 0.14 0.05 0.06 0.04 0.03 0.04 0.03 0.01 0.00 0.00 0.00 0.00 0.00 0.00 0.00 0.00 0.00 0.00 0.00 0.00 0.00 0.00 0.00
0.00 0.00 0.01 0.01 0.02 0.03 0.03 0.06 0.04 0.03 0.01 0.03 0.06 0.06 0.12 0.10 0.11 0.10 0.06 0.04 0.05 0.10 0.19 0.07 0.02 0.01 0.01 0.02 0.04 0.02 0.02 0.02 0.01 0.01 0.01 0.00 0.03 0.10 0.09 0.01 0.00 0.00 0.00
0.00 0.00 0.01 0.01 0.02 0.04 0.04 0.03 0.04 0.05 0.02 0.02 0.02 0.03 0.06 0.08 0.06 0.02 0.02 0.02 0.06 0.08 0.12 0.09 0.06 0.04 0.06 0.09 0.16 0.13 0.13 0.14 0.21 0.14 0.04 0.02 0.01 0.02 0.13 0.11 0.05 0.01 0.00
0.03 0.04 0.05 0.02 0.03 0.05 0.05 0.06 0.05 0.05 0.08 0.08 0.08 0.04 0.09 0.07 0.03 0.03 0.04 0.04 0.04 0.21 0.25 0.20 0.17 0.18 0.22 0.30 0.36 0.43 0.27 0.19 0.19 0.29 0.16 0.17 0.14 0.08 0.06 0.05 0.06 0.10 0.05
0.00 0.01 0.02 0.02 0.02 0.06 0.04 0.03 0.06 0.16 0.13 0.09 0.08 0.10 0.08 0.07 0.06 0.09 0.20 0.21 0.18 0.31 0.30 0.28 0.26 0.24 0.34 0.40 0.36 0.38 0.33 0.33 0.29 0.31 0.34 0.31 0.21 0.13 0.10 0.14 0.09 0.12 0.11
0.00 0.01 0.03 0.05 0.06 0.04 0.03 0.02 0.08 0.19 0.22 0.16 0.13 0.16 0.20 0.20 0.22 0.27 0.42 0.44 0.34 0.31 0.43 0.40 0.42 0.34 0.25 0.29 0.31 0.33 0.32 0.34 0.39 0.39 0.33 0.30 0.23 0.18 0.20 0.26 0.33 0.30 0.21
0.04 0.05 0.02 0.03 0.06 0.05 0.05 0.09 0.10 0.09 0.14 0.16 0.17 0.22 0.28 0.32 0.43 0.46 0.37 0.36 0.27 0.16 0.22 0.30 0.29 0.28 0.41 0.53 0.58 0.54 0.44 0.43 0.31 0.25 0.22 0.18 0.11 0.15 0.16 0.15 0.19 0.22 0.25
0.00 0.00 0.01 0.00 0.01 0.01 0.06 0.07 0.03 0.06 0.12 0.16 0.17 0.27 0.41 0.42 0.41 0.33 0.43 0.38 0.37 0.38 0.46 0.46 0.49 0.55 0.57 0.59 0.54 0.43 0.33 0.30 0.22 0.16 0.16 0.17 0.16 0.16 0.21 0.21 0.19 0.24 0.31
0.00 0.00 0.01 0.01 0.01 0.00 0.02 0.09 0.15 0.35 0.35 0.43 0.53 0.45 0.47 0.62 0.69 0.63 0.60 0.58 0.55 0.55 0.58 0.60 0.52 0.39 0.31 0.34 0.39 0.42 0.47 0.46 0.39 0.35 0.31 0.26 0.28 0.30 0.29 0.30 0.29 0.26 0.26
0.00 0.00 0.00 0.01 0.01 0.01 0.01 0.03 0.09 0.20 0.38 0.43 0.67 0.92 0.77 1.05 1.56 1.62 1.26 1.48 1.49 1.15 0.90 0.68 0.45 0.30 0.19 0.13 0.13 0.19 0.21 0.24 0.29 0.29 0.30 0.27 0.32 0.39 0.34 0.27 0.20 0.16 0.14
0.00 0.00 0.00 0.00 0.01 0.04 0.06 0.10 0.17 0.30 0.46 0.66 0.81 0.84 0.74 1.13 1.03 0.71 0.53 0.42 0.52 0.49 0.30 0.20 0.15 0.11 0.07 0.05 0.05 0.09 0.20 0.27 0.20 0.18 0.18 0.15 0.14 0.12 0.10 0.10 0.10 0.10 0.12
0.00 0.00 0.00 0.00 0.00 0.08 0.15 0.14 0.12 0.26 0.39 0.39 0.47 0.38 0.34 0.41 0.40 0.33 0.24 0.20 0.18 0.17 0.16 0.15 0.16 0.12 0.06 0.05 0.10 0.12 0.11 0.13 0.13 0.09 0.06 0.07 0.07 0.07 0.07 0.10 0.10 0.10 0.11
0.00 0.00 0.01 0.01 0.01 0.05 0.07 0.07 0.10 0.15 0.22 0.22 0.19 0.14 0.23 0.17 0.15 0.11 0.13 0.15 0.18 0.25 0.21 0.21 0.12 0.12 0.16 0.19 0.20 0.16 0.15 0.08 0.05 0.03 0.03 0.04 0.08 0.09 0.06 0.04 0.04 0.05 0.09
0.00 0.00 0.00 0.01 0.01 0.01 0.01 0.02 0.04 0.08 0.08 0.06 0.11 0.11 0.11 0.10 0.11 0.06 0.06 0.09 0.11 0.13 0.18 0.22 0.24 0.25 0.28 0.37 0.33 0.18 0.08 0.05 0.05 0.04 0.05 0.06 0.11 0.06 0.09 0.10 0.12 0.10 0.12
0.00 0.00 0.00 0.00 0.01 0.01 0.00 0.01 0.01 0.01 0.02 0.05 0.05 0.06 0.07 0.09 0.06 0.09 0.07 0.08 0.12 0.10 0.13 0.19 0.28 0.33 0.31 0.33 0.22 0.20 0.10 0.10 0.11 0.08 0.07 0.06 0.09 0.15 0.06 0.15 0.18 0.18 0.22
0.00 0.00 0.00 0.00 0.00 0.00 0.00 0.00 0.00 0.00 0.01 0.03 0.04 0.04 0.05 0.06 0.08 0.09 0.10 0.11 0.12 0.20 0.24 0.26 0.25 0.16 0.14 0.24 0.21 0.20 0.08 0.06 0.06 0.07 0.07 0.07 0.08 0.15 0.17 0.14 0.19 0.22 0.29
0.00 0.00 0.00 0.00 0.00 0.00 0.00 0.00 0.00 0.01 0.01 0.02 0.02 0.04 0.06 0.06 0.06 0.09 0.14 0.22 0.28 0.27 0.22 0.15 0.11 0.12 0.14 0.27 0.18 0.13 0.04 0.07 0.11 0.09 0.11 0.16 0.13 0.41 0.34 0.20 0.23 0.29 0.32
0.00 0.00 0.00 0.00 0.00 0.00 0.00 0.01 0.01 0.01 0.01 0.01 0.01 0.02 0.03 0.05 0.10 0.21 0.24 0.19 0.13 0.09 0.09 0.10 0.10 0.19 0.10 0.28 0.21 0.16 0.05 0.11 0.13 0.13 0.18 0.35 0.20 0.33 0.21 0.13 0.09 0.21 0.29
0.00 0.00 0.00 0.00 0.00 0.00 0.00 0.00 0.00 0.00 0.00 0.01 0.02 0.06 0.10 0.17 0.20 0.15 0.09 0.06 0.06 0.05 0.05 0.05 0.05 0.08 0.14 0.21 0.27 0.23 0.08 0.07 0.13 0.18 0.20 0.29 0.44 0.27 0.29 0.27 0.26 0.46 0.50
0.00 0.00 0.00 0.00 0.00 0.00 0.00 0.01 0.00 0.01 0.02 0.06 0.11 0.17 0.21 0.19 0.13 0.09 0.09 0.09 0.07 0.08 0.08 0.07 0.06 0.06 0.10 0.20 0.21 0.19 0.20 0.26 0.13 0.21 0.24 0.41 0.46 0.29 0.30 0.30 0.35 0.38 0.34
0.00 0.00 0.00 0.00 0.00 0.00 0.00 0.01 0.04 0.07 0.09 0.12 0.15 0.17 0.13 0.07 0.05 0.08 0.11 0.12 0.11 0.12 0.13 0.11 0.12 0.14 0.16 0.20 0.28 0.25 0.28 0.31 0.29 0.41 0.53 0.59 0.51 0.43 0.43 0.42 0.39 0.32 0.29
0.01 0.00 0.00 0.00 0.02 0.04 0.05 0.07 0.09 0.07 0.06 0.06 0.10 0.07 0.06 0.09 0.05 0.09 0.11 0.11 0.11 0.15 0.17 0.19 0.22 0.26 0.28 0.29 0.28 0.27 0.28 0.34 0.39 0.51 0.55 0.52 0.47 0.43 0.40 0.35 0.30 0.25 0.22
0.06 0.04 0.04 0.07 0.08 0.06 0.07 0.08 0.08 0.10 0.13 0.11 0.11 0.11 0.11 0.12 0.11 0.12 0.19 0.17 0.23 0.33 0.34 0.36 0.35 0.36 0.42 0.54 0.60 0.59 0.62 0.65 0.69 0.66 0.68 0.66 0.58 0.53 0.45 0.33 0.25 0.23 0.23
0.21 0.18 0.16 0.13 0.12 0.14 0.19 0.19 0.18 0.16 0.17 0.16 0.18 0.22 0.17 0.17 0.18 0.16 0.24 0.40 0.44 0.43 0.48 0.53 0.52 0.67 0.75 0.85 0.84 0.79 0.76 0.72 0.66 0.64 0.63 0.54 0.44 0.35 0.28 0.27 0.24 0.22 0.24

GFSMW_prec_precacc_066.txt.gz
Total_Precipitation_Accumulation
0.02 0.03 0.02 0.02 0.01 0.06 0.04 0.10 0.25 0.22 0.36 0.32 0.20 0.26 0.32 0.51 0.35 0.37 0.14 0.24 0.11 0.12 0.07 0.03 0.03 0.02 0.05 0.01 0.01 0.00 0.00 0.00 0.00 0.00 0.00 0.00 0.00 0.00 0.00 0.00 0.00 0.00 0.00
0.01 0.01 0.00 0.00 0.01 0.05 0.04 0.02 0.04 0.09 0.19 0.23 0.23 0.11 0.12 0.19 0.26 0.30 0.31 0.29 0.23 0.07 0.07 0.05 0.05 0.04 0.05 0.02 0.01 0.00 0.00 0.00 0.00 0.00 0.00 0.00 0.00 0.00 0.00 0.00 0.00 0.00 0.00
0.00 0.00 0.00 0.00 0.01 0.01 0.01 0.02 0.02 0.04 0.06 0.14 0.24 0.16 0.19 0.16 0.20 0.29 0.36 0.26 0.16 0.05 0.06 0.04 0.04 0.04 0.04 0.02 0.01 0.00 0.00 0.00 0.00 0.00 0.00 0.00 0.00 0.00 0.00 0.00 0.00 0.00 0.00
0.00 0.00 0.01 0.01 0.02 0.03 0.03 0.06 0.04 0.03 0.02 0.03 0.06 0.06 0.12 0.11 0.12 0.12 0.14 0.18 0.08 0.10 0.19 0.07 0.03 0.01 0.01 0.04 0.04 0.02 0.02 0.02 0.01 0.01 0.01 0.00 0.03 0.10 0.09 0.01 0.00 0.00 0.00
0.00 0.00 0.01 0.01 0.02 0.04 0.04 0.03 0.04 0.05 0.03 0.03 0.03 0.04 0.06 0.08 0.06 0.03 0.04 0.08 0.11 0.09 0.12 0.09 0.07 0.04 0.07 0.10 0.17 0.13 0.13 0.14 0.21 0.14 0.04 0.02 0.01 0.02 0.13 0.11 0.05 0.01 0.00
0.03 0.04 0.05 0.02 0.03 0.05 0.05 0.06 0.05 0.05 0.08 0.08 0.08 0.04 0.09 0.07 0.03 0.03 0.05 0.07 0.05 0.21 0.25 0.20 0.17 0.19 0.22 0.30 0.37 0.43 0.27 0.19 0.19 0.29 0.16 0.17 0.14 0.08 0.06 0.05 0.06 0.10 0.05
0.00 0.01 0.02 0.02 0.02 0.06 0.04 0.03 0.06 0.16 0.13 0.10 0.08 0.10 0.08 0.07 0.06 0.09 0.20 0.21 0.18 0.31 0.30 0.28 0.26 0.24 0.34 0.41 0.36 0.38 0.33 0.33 0.29 0.31 0.34 0.31 0.21 0.13 0.10 0.14 0.10 0.12 0.11
0.00 0.01 0.03 0.05 0.06 0.04 0.03 0.02 0.08 0.19 0.22 0.16 0.13 0.16 0.20 0.20 0.22 0.27 0.42 0.44 0.34 0.31 0.43 0.40 0.42 0.34 0.25 0.29 0.31 0.33 0.33 0.35 0.40 0.39 0.34 0.30 0.24 0.20 0.20 0.27 0.34 0.31 0.21
0.04 0.05 0.02 0.03 0.06 0.05 0.05 0.09 0.10 0.09 0.14 0.17 0.17 0.22 0.28 0.32 0.43 0.46 0.37 0.36 0.27 0.16 0.22 0.30 0.29 0.28 0.41 0.53 0.58 0.54 0.45 0.43 0.31 0.26 0.24 0.20 0.11 0.16 0.18 0.16 0.19 0.22 0.25
0.00 0.00 0.01 0.00 0.01 0.01 0.06 0.07 0.03 0.06 0.12 0.16 0.17 0.27 0.41 0.42 0.41 0.33 0.43 0.38 0.37 0.38 0.46 0.46 0.49 0.55 0.57 0.59 0.54 0.43 0.34 0.30 0.22 0.17 0.17 0.18 0.16 0.16 0.21 0.21 0.20 0.25 0.31
0.00 0.00 0.01 0.01 0.01 0.00 0.02 0.09 0.15 0.35 0.35 0.43 0.53 0.45 0.47 0.62 0.69 0.63 0.60 0.58 0.55 0.55 0.58 0.60 0.52 0.39 0.31 0.34 0.39 0.42 0.47 0.46 0.39 0.35 0.31 0.26 0.28 0.31 0.29 0.30 0.29 0.26 0.26
0.00 0.00 0.00 0.01 0.01 0.01 0.01 0.03 0.10 0.21 0.38 0.43 0.67 0.92 0.77 1.05 1.56 1.62 1.26 1.48 1.49 1.15 0.90 0.68 0.45 0.30 0.19 0.13 0.13 0.19 0.21 0.24 0.29 0.29 0.30 0.27 0.32 0.39 0.34 0.27 0.20 0.16 0.14
0.00 0.00 0.00 0.01 0.02 0.07 0.12 0.17 0.20 0.31 0.47 0.68 0.81 0.84 0.74 1.13 1.03 0.71 0.53 0.42 0.52 0.49 0.30 0.20 0.15 0.11 0.07 0.05 0.05 0.09 0.20 0.27 0.20 0.18 0.18 0.15 0.14 0.12 0.10 0.10 0.10 0.10 0.12
0.00 0.00 0.01 0.01 0.01 0.09 0.18 0.23 0.25 0.34 0.42 0.42 0.49 0.38 0.34 0.41 0.40 0.33 0.24 0.20 0.18 0.17 0.16 0.15 0.16 0.12 0.06 0.05 0.10 0.12 0.11 0.13 0.13 0.09 0.06 0.07 0.07 0.07 0.07 0.10 0.10 0.10 0.11
0.00 0.00 0.01 0.01 0.01 0.05 0.08 0.08 0.11 0.17 0.25 0.24 0.22 0.20 0.28 0.21 0.17 0.11 0.13 0.15 0.18 0.25 0.21 0.21 0.12 0.12 0.16 0.19 0.20 0.16 0.15 0.08 0.05 0.03 0.03 0.04 0.08 0.09 0.06 0.04 0.04 0.05 0.09
0.00 0.00 0.00 0.01 0.01 0.01 0.01 0.02 0.04 0.08 0.08 0.07 0.15 0.17 0.13 0.16 0.16 0.13 0.12 0.12 0.11 0.13 0.19 0.22 0.24 0.25 0.28 0.37 0.33 0.18 0.08 0.05 0.05 0.04 0.05 0.06 0.11 0.06 0.09 0.10 0.12 0.10 0.12
0.00 0.00 0.00 0.00 0.01 0.01 0.00 0.01 0.01 0.01 0.02 0.05 0.05 0.06 0.07 0.09 0.09 0.15 0.13 0.12 0.13 0.15 0.14 0.20 0.29 0.33 0.31 0.34 0.23 0.20 0.10 0.10 0.11 0.08 0.07 0.06 0.09 0.15 0.06 0.15 0.18 0.18 0.24
0.00 0.00 0.00 0.00 0.00 0.00 0.00 0.00 0.00 0.00 0.01 0.03 0.04 0.04 0.05 0.06 0.09 0.10 0.10 0.12 0.16 0.23 0.26 0.29 0.27 0.19 0.15 0.25 0.24 0.23 0.09 0.06 0.06 0.07 0.07 0.07 0.08 0.15 0.17 0.14 0.20 0.23 0.30
0.00 0.00 0.00 0.00 0.00 0.00 0.00 0.00 0.00 0.01 0.01 0.02 0.02 0.04 0.06 0.06 0.06 0.09 0.14 0.24 0.30 0.29 0.24 0.17 0.16 0.14 0.15 0.31 0.23 0.20 0.10 0.10 0.12 0.09 0.12 0.17 0.14 0.42 0.38 0.24 0.24 0.31 0.34
0.00 0.00 0.00 0.00 0.00 0.00 0.00 0.01 0.01 0.01 0.01 0.01 0.01 0.02 0.03 0.05 0.10 0.21 0.24 0.20 0.15 0.11 0.12 0.12 0.12 0.22 0.13 0.32 0.25 0.22 0.08 0.13 0.15 0.16 0.20 0.40 0.24 0.36 0.25 0.15 0.10 0.23 0.33
0.00 0.00 0.00 0.00 0.00 0.00 0.00 0.00 0.00 0.00 0.00 0.01 0.02 0.06 0.10 0.17 0.20 0.15 0.09 0.06 0.06 0.06 0.07 0.08 0.08 0.12 0.19 0.25 0.33 0.29 0.11 0.09 0.16 0.24 0.26 0.35 0.57 0.34 0.35 0.34 0.30 0.58 0.63
0.00 0.00 0.00 0.00 0.00 0.00 0.00 0.01 0.00 0.01 0.02 0.06 0.11 0.17 0.21 0.19 0.13 0.09 0.09 0.09 0.07 0.08 0.09 0.09 0.10 0.10 0.12 0.24 0.26 0.24 0.25 0.35 0.21 0.30 0.31 0.49 0.59 0.38 0.40 0.42 0.52 0.59 0.51
0.00 0.00 0.00 0.00 0.00 0.00 0.00 0.01 0.04 0.07 0.09 0.12 0.15 0.17 0.13 0.07 0.05 0.08 0.11 0.12 0.11 0.12 0.15 0.16 0.20 0.22 0.21 0.25 0.36 0.32 0.37 0.46 0.45 0.60 0.73 0.79 0.67 0.57 0.58 0.62 0.62 0.56 0.54
0.01 0.00 0.00 0.00 0.02 0.04 0.05 0.07 0.09 0.07 0.06 0.06 0.10 0.07 0.06 0.09 0.05 0.09 0.11 0.11 0.11 0.16 0.20 0.28 0.34 0.36 0.37 0.36 0.34 0.34 0.36 0.45 0.57 0.77 0.83 0.77 0.71 0.69 0.72 0.73 0.67 0.57 0.53
0.06 0.04 0.04 0.07 0.08 0.06 0.07 0.08 0.09 0.10 0.13 0.11 0.11 0.11 0.11 0.12 0.11 0.14 0.22 0.19 0.28 0.38 0.39 0.44 0.47 0.50 0.60 0.78 0.87 0.87 0.90 0.94 1.03 1.06 1.11 1.11 1.08 1.02 0.96 0.87 0.76 0.69 0.63
0.21 0.18 0.16 0.13 0.12 0.14 0.19 0.19 0.18 0.17 0.17 0.16 0.18 0.22 0.17 0.18 0.18 0.18 0.27 0.46 0.51 0.50 0.56 0.62 0.62 0.86 1.02 1.15 1.12 1.10 1.09 1.07 1.03 1.01 0.99 0.89 0.79 0.69 0.59 0.53 0.47 0.42 0.40

GFSMW_prec_precacc_069.txt.gz
Total_Precipitation_Accumulation
0.02 0.03 0.02 0.02 0.01 0.06 0.04 0.10 0.25 0.22 0.36 0.33 0.20 0.26 0.32 0.51 0.35 0.37 0.15 0.26 0.14 0.14 0.07 0.03 0.03 0.02 0.05 0.01 0.01 0.00 0.00 0.00 0.00 0.00 0.00 0.00 0.00 0.00 0.00 0.00 0.00 0.00 0.00
0.01 0.01 0.00 0.00 0.01 0.05 0.04 0.02 0.04 0.09 0.19 0.24 0.23 0.11 0.12 0.19 0.27 0.32 0.35 0.30 0.24 0.10 0.09 0.06 0.05 0.04 0.05 0.02 0.01 0.00 0.00 0.00 0.00 0.00 0.00 0.00 0.00 0.00 0.00 0.00 0.00 0.00 0.00
0.00 0.00 0.00 0.00 0.01 0.01 0.01 0.02 0.02 0.04 0.06 0.14 0.24 0.16 0.20 0.17 0.21 0.36 0.55 0.31 0.18 0.10 0.10 0.05 0.04 0.04 0.04 0.02 0.01 0.00 0.00 0.00 0.00 0.00 0.00 0.00 0.01 0.00 0.00 0.00 0.00 0.00 0.00
0.00 0.00 0.01 0.01 0.02 0.03 0.03 0.06 0.04 0.03 0.02 0.03 0.07 0.06 0.12 0.11 0.13 0.13 0.25 0.35 0.16 0.14 0.24 0.10 0.05 0.01 0.02 0.04 0.05 0.02 0.02 0.02 0.01 0.01 0.01 0.00 0.03 0.10 0.10 0.01 0.00 0.00 0.00
0.00 0.00 0.01 0.01 0.02 0.04 0.04 0.03 0.04 0.05 0.03 0.03 0.03 0.04 0.06 0.09 0.06 0.03 0.05 0.23 0.24 0.15 0.16 0.11 0.09 0.06 0.07 0.11 0.18 0.13 0.13 0.14 0.21 0.14 0.04 0.02 0.01 0.02 0.13 0.11 0.05 0.01 0.00
0.03 0.04 0.05 0.02 0.03 0.05 0.05 0.06 0.05 0.05 0.08 0.08 0.08 0.04 0.09 0.07 0.04 0.04 0.05 0.08 0.15 0.29 0.31 0.23 0.19 0.21 0.23 0.31 0.41 0.46 0.27 0.19 0.19 0.29 0.16 0.17 0.14 0.08 0.06 0.05 0.06 0.10 0.05
0.00 0.01 0.02 0.02 0.02 0.06 0.04 0.03 0.06 0.16 0.13 0.10 0.08 0.10 0.08 0.07 0.06 0.10 0.20 0.21 0.19 0.36 0.35 0.31 0.30 0.27 0.36 0.42 0.40 0.44 0.38 0.34 0.29 0.31 0.34 0.31 0.21 0.13 0.10 0.14 0.10 0.12 0.11
0.00 0.01 0.03 0.05 0.06 0.04 0.03 0.02 0.08 0.19 0.22 0.16 0.13 0.16 0.20 0.20 0.22 0.28 0.42 0.44 0.34 0.31 0.44 0.41 0.45 0.37 0.28 0.32 0.33 0.35 0.38 0.38 0.40 0.39 0.34 0.30 0.24 0.20 0.20 0.27 0.34 0.31 0.21
0.04 0.05 0.02 0.03 0.06 0.05 0.05 0.09 0.10 0.09 0.14 0.17 0.17 0.22 0.28 0.32 0.43 0.46 0.37 0.36 0.27 0.16 0.22 0.30 0.30 0.30 0.43 0.55 0.60 0.55 0.46 0.45 0.31 0.26 0.24 0.20 0.11 0.16 0.18 0.16 0.19 0.23 0.25
0.00 0.00 0.01 0.00 0.01 0.01 0.06 0.07 0.03 0.06 0.12 0.16 0.17 0.27 0.41 0.42 0.41 0.33 0.43 0.38 0.37 0.38 0.46 0.46 0.49 0.55 0.57 0.59 0.55 0.43 0.34 0.31 0.22 0.17 0.17 0.18 0.16 0.16 0.21 0.21 0.20 0.26 0.33
0.00 0.00 0.01 0.01 0.01 0.00 0.02 0.09 0.15 0.35 0.35 0.43 0.53 0.45 0.47 0.62 0.69 0.63 0.60 0.58 0.55 0.55 0.58 0.60 0.52 0.39 0.31 0.34 0.39 0.42 0.47 0.46 0.39 0.35 0.31 0.26 0.28 0.31 0.29 0.30 0.29 0.27 0.27
0.00 0.00 0.00 0.01 0.02 0.02 0.02 0.04 0.10 0.21 0.39 0.44 0.68 0.92 0.77 1.05 1.56 1.62 1.26 1.48 1.49 1.15 0.90 0.68 0.45 0.30 0.19 0.13 0.13 0.19 0.21 0.24 0.29 0.29 0.30 0.27 0.32 0.39 0.34 0.28 0.21 0.16 0.14
0.00 0.00 0.01 0.02 0.04 0.13 0.19 0.25 0.27 0.35 0.49 0.70 0.83 0.85 0.74 1.13 1.03 0.71 0.53 0.42 0.52 0.49 0.30 0.20 0.15 0.11 0.07 0.05 0.05 0.09 0.20 0.27 0.20 0.18 0.18 0.15 0.14 0.12 0.10 0.10 0.10 0.10 0.12
0.02 0.03 0.04 0.05 0.07 0.17 0.26 0.29 0.27 0.38 0.43 0.44 0.50 0.41 0.36 0.42 0.41 0.33 0.24 0.20 0.18 0.17 0.16 0.15 0.16 0.12 0.06 0.05 0.10 0.12 0.11 0.13 0.13 0.09 0.06 0.07 0.07 0.07 0.07 0.10 0.10 0.10 0.11
0.00 0.01 0.02 0.02 0.02 0.06 0.10 0.09 0.12 0.17 0.25 0.24 0.22 0.21 0.29 0.23 0.19 0.13 0.14 0.16 0.18 0.25 0.21 0.21 0.12 0.12 0.16 0.19 0.20 0.16 0.15 0.08 0.05 0.03 0.03 0.04 0.08 0.09 0.06 0.04 0.04 0.05 0.09
0.00 0.00 0.00 0.01 0.01 0.01 0.01 0.02 0.04 0.08 0.08 0.07 0.15 0.17 0.13 0.16 0.18 0.16 0.19 0.16 0.13 0.16 0.20 0.23 0.24 0.25 0.28 0.37 0.33 0.18 0.08 0.05 0.05 0.04 0.05 0.06 0.11 0.06 0.09 0.10 0.12 0.10 0.12
0.00 0.00 0.00 0.00 0.01 0.01 0.00 0.01 0.01 0.01 0.02 0.05 0.05 0.06 0.07 0.09 0.09 0.16 0.14 0.13 0.16 0.20 0.16 0.23 0.32 0.35 0.33 0.35 0.24 0.22 0.10 0.10 0.11 0.08 0.07 0.06 0.09 0.15 0.06 0.15 0.18 0.18 0.24
0.01 0.00 0.00 0.00 0.00 0.00 0.00 0.00 0.00 0.00 0.01 0.03 0.04 0.04 0.05 0.06 0.09 0.10 0.10 0.13 0.18 0.25 0.28 0.31 0.28 0.21 0.17 0.27 0.31 0.36 0.18 0.10 0.08 0.07 0.07 0.07 0.08 0.15 0.17 0.14 0.20 0.23 0.30
0.01 0.00 0.00 0.00 0.00 0.00 0.00 0.00 0.00 0.01 0.01 0.02 0.02 0.04 0.06 0.06 0.06 0.09 0.14 0.24 0.30 0.30 0.26 0.19 0.18 0.17 0.16 0.35 0.32 0.31 0.18 0.15 0.16 0.14 0.14 0.18 0.14 0.43 0.40 0.25 0.25 0.31 0.34
0.00 0.00 0.00 0.00 0.00 0.00 0.00 0.01 0.01 0.01 0.01 0.01 0.01 0.02 0.03 0.05 0.10 0.21 0.24 0.20 0.15 0.11 0.12 0.13 0.13 0.28 0.16 0.39 0.32 0.27 0.12 0.14 0.16 0.18 0.22 0.43 0.27 0.39 0.29 0.18 0.11 0.24 0.34
0.00 0.00 0.00 0.00 0.00 0.00 0.00 0.00 0.00 0.00 0.00 0.01 0.02 0.06 0.10 0.17 0.20 0.15 0.09 0.06 0.06 0.06 0.07 0.08 0.08 0.14 0.24 0.31 0.42 0.36 0.21 0.15 0.22 0.28 0.30 0.41 0.74 0.45 0.47 0.48 0.38 0.71 0.76
0.00 0.00 0.00 0.00 0.00 0.00 0.00 0.01 0.00 0.01 0.02 0.06 0.11 0.17 0.21 0.19 0.13 0.09 0.09 0.09 0.07 0.08 0.09 0.09 0.11 0.12 0.15 0.31 0.32 0.31 0.34 0.46 0.33 0.48 0.48 0.67 0.76 0.49 0.56 0.65 0.83 0.90 0.73
0.00 0.00 0.00 0.00 0.00 0.00 0.00 0.01 0.04 0.07 0.09 0.12 0.15 0.17 0.13 0.07 0.05 0.08 0.11 0.12 0.11 0.13 0.15 0.17 0.21 0.24 0.23 0.29 0.43 0.38 0.45 0.57 0.58 0.81 1.00 1.01 0.84 0.74 0.79 0.91 0.94 0.92 0.92
0.01 0.00 0.00 0.00 0.02 0.04 0.05 0.07 0.09 0.07 0.06 0.06 0.10 0.07 0.06 0.09 0.05 0.09 0.11 0.11 0.12 0.16 0.21 0.29 0.35 0.37 0.40 0.39 0.38 0.40 0.44 0.57 0.70 0.97 1.09 1.07 1.01 0.96 1.00 1.02 0.98 0.96 1.01
0.06 0.04 0.04 0.07 0.08 0.07 0.08 0.08 0.09 0.10 0.13 0.11 0.11 0.11 0.11 0.12 0.11 0.14 0.23 0.20 0.31 0.40 0.41 0.47 0.50 0.53 0.65 0.89 0.96 0.96 1.03 1.10 1.23 1.28 1.39 1.41 1.38 1.36 1.32 1.21 1.08 1.01 0.95
0.21 0.18 0.17 0.13 0.13 0.15 0.19 0.19 0.18 0.17 0.17 0.16 0.18 0.22 0.17 0.18 0.18 0.18 0.27 0.46 0.52 0.51 0.58 0.65 0.67 0.94 1.13 1.26 1.23 1.23 1.25 1.25 1.23 1.18 1.18 1.08 0.97 0.88 0.77 0.70 0.64 0.58 0.54

GFSMW_prec_precacc_072.txt.gz
Total_Precipitation_Accumulation
0.02 0.03 0.02 0.02 0.01 0.06 0.04 0.10 0.25 0.22 0.36 0.33 0.20 0.27 0.33 0.52 0.36 0.39 0.37 0.71 0.43 0.33 0.11 0.04 0.03 0.02 0.05 0.01 0.01 0.00 0.00 0.00 0.00 0.00 0.00 0.00 0.00 0.00 0.00 0.00 0.00 0.00 0.00
0.01 0.01 0.00 0.00 0.01 0.05 0.04 0.02 0.04 0.10 0.19 0.24 0.24 0.11 0.12 0.19 0.27 0.33 0.38 0.40 0.40 0.26 0.16 0.09 0.05 0.04 0.05 0.02 0.01 0.00 0.00 0.00 0.00 0.00 0.00 0.00 0.00 0.00 0.00 0.00 0.00 0.00 0.00
0.00 0.00 0.00 0.00 0.01 0.01 0.01 0.02 0.02 0.04 0.06 0.14 0.24 0.16 0.20 0.17 0.21 0.36 0.56 0.33 0.20 0.15 0.17 0.11 0.06 0.04 0.04 0.02 0.01 0.00 0.00 0.00 0.00 0.00 0.00 0.00 0.01 0.00 0.00 0.00 0.00 0.00 0.00
0.00 0.00 0.01 0.01 0.02 0.03 0.03 0.06 0.04 0.03 0.02 0.04 0.07 0.06 0.12 0.12 0.13 0.13 0.26 0.40 0.17 0.15 0.30 0.17 0.08 0.02 0.02 0.04 0.05 0.02 0.02 0.02 0.01 0.01 0.01 0.00 0.03 0.10 0.10 0.02 0.00 0.00 0.00
0.00 0.00 0.01 0.01 0.02 0.04 0.04 0.03 0.04 0.05 0.03 0.03 0.03 0.04 0.07 0.09 0.06 0.03 0.05 0.26 0.35 0.17 0.19 0.22 0.14 0.07 0.07 0.11 0.18 0.13 0.13 0.14 0.21 0.14 0.04 0.02 0.01 0.02 0.13 0.11 0.05 0.01 0.00
0.03 0.04 0.05 0.02 0.03 0.05 0.05 0.06 0.05 0.05 0.08 0.09 0.08 0.04 0.09 0.07 0.04 0.04 0.06 0.10 0.21 0.38 0.33 0.32 0.29 0.23 0.23 0.31 0.42 0.46 0.28 0.19 0.19 0.29 0.16 0.17 0.14 0.08 0.06 0.05 0.06 0.10 0.05
0.00 0.01 0.02 0.02 0.02 0.06 0.04 0.03 0.06 0.16 0.13 0.10 0.09 0.10 0.08 0.08 0.07 0.10 0.20 0.22 0.21 0.40 0.38 0.34 0.33 0.29 0.37 0.42 0.41 0.46 0.38 0.35 0.30 0.31 0.34 0.31 0.21 0.13 0.10 0.14 0.10 0.12 0.11
0.00 0.01 0.03 0.05 0.06 0.04 0.03 0.02 0.08 0.19 0.22 0.16 0.13 0.16 0.20 0.20 0.22 0.28 0.42 0.45 0.34 0.31 0.45 0.45 0.50 0.42 0.33 0.35 0.37 0.41 0.44 0.44 0.44 0.40 0.34 0.30 0.24 0.20 0.20 0.27 0.34 0.31 0.21
0.04 0.05 0.02 0.03 0.06 0.05 0.05 0.09 0.10 0.09 0.14 0.17 0.17 0.22 0.28 0.32 0.43 0.46 0.37 0.37 0.27 0.16 0.22 0.31 0.34 0.33 0.48 0.62 0.65 0.61 0.52 0.52 0.40 0.33 0.27 0.20 0.12 0.16 0.18 0.16 0.19 0.23 0.25
0.00 0.00 0.01 0.00 0.01 0.01 0.06 0.07 0.03 0.06 0.12 0.16 0.17 0.27 0.41 0.42 0.41 0.33 0.43 0.38 0.37 0.39 0.46 0.46 0.49 0.55 0.59 0.64 0.58 0.45 0.35 0.34 0.27 0.22 0.23 0.21 0.17 0.16 0.21 0.21 0.20 0.26 0.33
0.00 0.00 0.01 0.01 0.01 0.01 0.03 0.09 0.15 0.35 0.35 0.43 0.53 0.45 0.47 0.62 0.69 0.63 0.60 0.58 0.55 0.55 0.58 0.60 0.52 0.39 0.31 0.34 0.41 0.43 0.47 0.46 0.40 0.36 0.33 0.27 0.29 0.31 0.29 0.30 0.29 0.27 0.29
0.00 0.00 0.00 0.01 0.02 0.05 0.04 0.04 0.11 0.21 0.39 0.45 0.68 0.92 0.77 1.05 1.56 1.62 1.26 1.48 1.49 1.15 0.90 0.68 0.45 0.30 0.19 0.13 0.13 0.19 0.21 0.24 0.29 0.29 0.30 0.27 0.32 0.39 0.34 0.28 0.21 0.16 0.15
0.00 0.00 0.02 0.03 0.06 0.15 0.21 0.27 0.31 0.39 0.52 0.72 0.84 0.86 0.75 1.13 1.03 0.71 0.53 0.42 0.52 0.49 0.30 0.20 0.15 0.11 0.07 0.05 0.05 0.09 0.20 0.27 0.20 0.18 0.18 0.15 0.14 0.12 0.10 0.10 0.10 0.10 0.13
0.03 0.04 0.06 0.08 0.13 0.25 0.35 0.37 0.33 0.42 0.47 0.45 0.50 0.42 0.36 0.43 0.42 0.34 0.24 0.20 0.18 0.17 0.16 0.15 0.16 0.12 0.06 0.05 0.10 0.12 0.11 0.13 0.13 0.09 0.06 0.07 0.07 0.07 0.07 0.10 0.10 0.10 0.11
0.01 0.04 0.06 0.06 0.08 0.12 0.15 0.13 0.15 0.20 0.26 0.24 0.22 0.21 0.29 0.23 0.20 0.14 0.15 0.17 0.18 0.26 0.21 0.21 0.12 0.12 0.16 0.19 0.20 0.16 0.15 0.08 0.05 0.03 0.03 0.04 0.08 0.09 0.06 0.04 0.04 0.05 0.09
0.00 0.00 0.00 0.02 0.01 0.02 0.01 0.02 0.05 0.09 0.08 0.07 0.15 0.17 0.14 0.17 0.19 0.17 0.21 0.17 0.14 0.19 0.21 0.23 0.25 0.26 0.29 0.38 0.33 0.18 0.08 0.05 0.05 0.04 0.05 0.06 0.11 0.06 0.09 0.10 0.12 0.10 0.12
0.00 0.00 0.00 0.00 0.01 0.01 0.00 0.01 0.01 0.01 0.02 0.05 0.05 0.06 0.07 0.09 0.10 0.16 0.15 0.15 0.18 0.22 0.19 0.26 0.34 0.36 0.36 0.42 0.30 0.29 0.13 0.11 0.11 0.08 0.07 0.06 0.09 0.15 0.06 0.15 0.18 0.18 0.24
0.05 0.02 0.02 0.01 0.00 0.00 0.00 0.00 0.00 0.00 0.01 0.03 0.04 0.04 0.05 0.06 0.09 0.10 0.10 0.13 0.18 0.26 0.31 0.33 0.31 0.25 0.22 0.37 0.40 0.47 0.26 0.14 0.10 0.08 0.11 0.11 0.10 0.16 0.18 0.14 0.20 0.23 0.30
0.08 0.04 0.01 0.00 0.00 0.00 0.00 0.00 0.00 0.01 0.01 0.02 0.02 0.04 0.06 0.06 0.06 0.09 0.14 0.24 0.30 0.30 0.26 0.19 0.18 0.19 0.19 0.42 0.36 0.34 0.19 0.16 0.18 0.19 0.20 0.27 0.20 0.47 0.44 0.27 0.28 0.33 0.36
0.05 0.01 0.00 0.00 0.00 0.00 0.00 0.01 0.01 0.01 0.01 0.01 0.01 0.02 0.03 0.05 0.10 0.21 0.24 0.20 0.15 0.11 0.12 0.13 0.13 0.29 0.17 0.42 0.33 0.28 0.13 0.15 0.18 0.23 0.32 0.66 0.35 0.41 0.31 0.21 0.15 0.32 0.46
0.00 0.00 0.00 0.00 0.00 0.00 0.00 0.00 0.00 0.00 0.00 0.01 0.02 0.06 0.10 0.17 0.20 0.15 0.09 0.06 0.06 0.06 0.07 0.08 0.08 0.14 0.25 0.32 0.43 0.37 0.21 0.16 0.26 0.37 0.40 0.50 0.87 0.48 0.50 0.59 0.48 1.02 1.03
0.00 0.00 0.00 0.00 0.00 0.00 0.00 0.01 0.00 0.01 0.02 0.06 0.11 0.17 0.21 0.19 0.13 0.09 0.09 0.09 0.07 0.08 0.09 0.09 0.11 0.12 0.15 0.33 0.33 0.32 0.35 0.48 0.36 0.55 0.57 0.80 0.88 0.54 0.61 0.76 1.05 1.22 1.05
0.00 0.00 0.00 0.00 0.00 0.00 0.00 0.02 0.04 0.07 0.09 0.12 0.15 0.17 0.13 0.07 0.05 0.08 0.11 0.12 0.11 0.13 0.15 0.17 0.21 0.24 0.23 0.30 0.45 0.39 0.46 0.59 0.60 0.85 1.09 1.14 0.96 0.85 0.93 1.09 1.16 1.18 1.21
0.01 0.00 0.00 0.00 0.02 0.04 0.05 0.08 0.09 0.07 0.06 0.06 0.10 0.07 0.06 0.09 0.05 0.09 0.11 0.11 0.12 0.16 0.21 0.29 0.35 0.37 0.40 0.40 0.39 0.41 0.45 0.58 0.72 1.01 1.14 1.14 1.09 1.07 1.14 1.19 1.19 1.19 1.26
0.06 0.04 0.04 0.07 0.08 0.07 0.08 0.08 0.09 0.10 0.13 0.11 0.11 0.11 0.11 0.12 0.12 0.15 0.23 0.21 0.32 0.40 0.41 0.47 0.51 0.54 0.67 0.91 0.97 0.97 1.04 1.12 1.26 1.32 1.43 1.46 1.44 1.42 1.39 1.30 1.21 1.14 1.06
0.21 0.18 0.17 0.14 0.13 0.15 0.20 0.20 0.18 0.17 0.17 0.16 0.18 0.22 0.17 0.18 0.19 0.18 0.28 0.47 0.52 0.52 0.58 0.66 0.67 0.95 1.15 1.27 1.24 1.24 1.26 1.28 1.26 1.21 1.23 1.14 1.04 0.94 0.84 0.78 0.70 0.63 0.59

GFSMW_prec_precacc_078.txt.gz
Total_Precipitation_Accumulation
0.02 0.03 0.02 0.02 0.01 0.06 0.04 0.10 0.25 0.23 0.37 0.34 0.22 0.28 0.33 0.53 0.36 0.41 0.44 0.89 0.94 1.44 0.70 0.27 0.10 0.10 0.15 0.06 0.02 0.01 0.00 0.00 0.00 0.00 0.00 0.00 0.00 0.00 0.00 0.00 0.00 0.00 0.00
0.01 0.01 0.00 0.00 0.01 0.05 0.04 0.02 0.04 0.10 0.19 0.24 0.24 0.12 0.12 0.20 0.28 0.34 0.43 0.57 0.73 0.93 0.81 0.41 0.23 0.12 0.12 0.10 0.02 0.01 0.01 0.01 0.00 0.00 0.00 0.01 0.01 0.00 0.00 0.00 0.00 0.00 0.00
0.00 0.00 0.00 0.00 0.01 0.01 0.01 0.02 0.02 0.05 0.07 0.14 0.25 0.18 0.20 0.18 0.23 0.38 0.60 0.43 0.44 0.69 0.77 0.45 0.37 0.19 0.09 0.06 0.01 0.00 0.00 0.00 0.00 0.00 0.00 0.01 0.01 0.01 0.00 0.00 0.00 0.00 0.00
0.00 0.00 0.01 0.01 0.02 0.03 0.03 0.06 0.04 0.04 0.03 0.04 0.07 0.07 0.13 0.12 0.14 0.14 0.28 0.46 0.24 0.42 0.82 0.53 0.38 0.22 0.06 0.06 0.05 0.02 0.02 0.02 0.01 0.01 0.01 0.00 0.03 0.10 0.10 0.02 0.00 0.00 0.00
0.00 0.00 0.01 0.01 0.02 0.04 0.04 0.03 0.04 0.05 0.03 0.04 0.03 0.05 0.07 0.10 0.07 0.04 0.07 0.31 0.47 0.29 0.54 0.52 0.40 0.19 0.11 0.12 0.18 0.13 0.13 0.14 0.21 0.14 0.05 0.02 0.01 0.02 0.13 0.11 0.05 0.01 0.00
0.03 0.04 0.05 0.02 0.03 0.05 0.05 0.06 0.05 0.05 0.09 0.09 0.09 0.05 0.10 0.08 0.05 0.05 0.07 0.12 0.31 0.69 0.65 0.52 0.45 0.33 0.26 0.32 0.42 0.46 0.28 0.19 0.19 0.29 0.16 0.17 0.15 0.08 0.06 0.05 0.06 0.10 0.05
0.00 0.01 0.02 0.02 0.02 0.06 0.04 0.03 0.06 0.16 0.14 0.10 0.09 0.11 0.09 0.08 0.07 0.11 0.21 0.23 0.23 0.50 0.63 0.59 0.53 0.47 0.45 0.44 0.41 0.46 0.38 0.35 0.30 0.31 0.34 0.31 0.22 0.13 0.10 0.14 0.10 0.12 0.11
0.00 0.01 0.03 0.05 0.06 0.04 0.03 0.02 0.08 0.20 0.22 0.17 0.14 0.16 0.20 0.21 0.23 0.29 0.43 0.46 0.35 0.32 0.52 0.64 0.70 0.56 0.46 0.43 0.40 0.42 0.44 0.44 0.44 0.40 0.34 0.31 0.25 0.21 0.21 0.27 0.34 0.31 0.21
0.04 0.05 0.02 0.03 0.06 0.05 0.05 0.09 0.10 0.10 0.15 0.17 0.17 0.22 0.29 0.32 0.43 0.46 0.37 0.37 0.29 0.17 0.23 0.37 0.48 0.47 0.56 0.70 0.71 0.63 0.52 0.52 0.40 0.33 0.27 0.21 0.12 0.16 0.18 0.17 0.19 0.24 0.26
0.00 0.00 0.01 0.00 0.01 0.01 0.07 0.07 0.04 0.07 0.12 0.16 0.17 0.28 0.41 0.42 0.41 0.33 0.43 0.38 0.38 0.40 0.47 0.48 0.53 0.68 0.76 0.73 0.68 0.54 0.39 0.36 0.28 0.23 0.27 0.26 0.19 0.17 0.22 0.21 0.21 0.26 0.33
0.00 0.00 0.01 0.02 0.01 0.02 0.05 0.10 0.15 0.35 0.35 0.43 0.53 0.45 0.47 0.62 0.69 0.63 0.60 0.58 0.56 0.56 0.59 0.60 0.54 0.40 0.34 0.39 0.46 0.54 0.57 0.52 0.42 0.38 0.35 0.29 0.32 0.36 0.33 0.32 0.31 0.29 0.31
0.02 0.02 0.02 0.03 0.04 0.07 0.06 0.06 0.11 0.22 0.39 0.45 0.68 0.92 0.78 1.05 1.57 1.62 1.27 1.48 1.49 1.15 0.91 0.69 0.46 0.31 0.19 0.15 0.16 0.21 0.28 0.31 0.35 0.32 0.31 0.28 0.34 0.43 0.37 0.31 0.26 0.20 0.16
0.03 0.02 0.05 0.08 0.11 0.19 0.25 0.31 0.33 0.50 0.64 0.77 0.85 0.86 0.75 1.13 1.04 0.72 0.53 0.43 0.52 0.49 0.30 0.20 0.15 0.11 0.07 0.05 0.06 0.10 0.20 0.28 0.21 0.20 0.21 0.16 0.15 0.13 0.11 0.11 0.10 0.10 0.13
0.10 0.09 0.09 0.12 0.18 0.32 0.43 0.44 0.49 0.62 0.60 0.49 0.53 0.45 0.37 0.43 0.42 0.34 0.25 0.21 0.18 0.18 0.17 0.15 0.16 0.12 0.06 0.05 0.11 0.13 0.12 0.13 0.14 0.10 0.07 0.09 0.08 0.08 0.08 0.11 0.10 0.11 0.11
0.06 0.13 0.13 0.13 0.14 0.20 0.26 0.25 0.27 0.30 0.32 0.27 0.25 0.23 0.31 0.25 0.21 0.15 0.16 0.17 0.19 0.26 0.22 0.21 0.13 0.13 0.16 0.20 0.20 0.16 0.15 0.08 0.05 0.03 0.03 0.05 0.09 0.10 0.07 0.08 0.07 0.09 0.13
0.06 0.06 0.07 0.07 0.07 0.09 0.06 0.08 0.11 0.14 0.10 0.07 0.15 0.18 0.15 0.18 0.21 0.19 0.22 0.19 0.16 0.21 0.23 0.26 0.27 0.29 0.33 0.45 0.35 0.20 0.08 0.05 0.05 0.05 0.05 0.07 0.12 0.06 0.09 0.10 0.12 0.11 0.14
0.04 0.03 0.03 0.03 0.04 0.03 0.02 0.03 0.03 0.03 0.05 0.08 0.06 0.06 0.07 0.09 0.10 0.17 0.16 0.16 0.20 0.24 0.23 0.31 0.40 0.45 0.45 0.60 0.35 0.33 0.15 0.13 0.15 0.11 0.10 0.09 0.14 0.22 0.07 0.17 0.21 0.20 0.27
0.28 0.09 0.03 0.01 0.00 0.00 0.00 0.00 0.01 0.00 0.01 0.03 0.05 0.05 0.05 0.07 0.09 0.10 0.10 0.13 0.18 0.27 0.31 0.34 0.32 0.27 0.27 0.43 0.42 0.48 0.26 0.15 0.11 0.11 0.14 0.15 0.14 0.23 0.29 0.16 0.22 0.25 0.39
0.32 0.26 0.08 0.06 0.02 0.00 0.00 0.01 0.01 0.01 0.01 0.02 0.03 0.04 0.06 0.06 0.06 0.09 0.14 0.24 0.30 0.30 0.26 0.19 0.18 0.19 0.19 0.43 0.36 0.34 0.19 0.16 0.19 0.23 0.30 0.38 0.23 0.55 0.52 0.30 0.30 0.38 0.56
0.18 0.11 0.04 0.03 0.03 0.03 0.01 0.01 0.01 0.01 0.02 0.02 0.01 0.02 0.03 0.05 0.10 0.21 0.24 0.20 0.15 0.11 0.12 0.13 0.13 0.29 0.17 0.42 0.33 0.28 0.13 0.15 0.18 0.25 0.38 0.77 0.39 0.44 0.33 0.22 0.16 0.39 0.75
0.06 0.04 0.02 0.02 0.02 0.01 0.01 0.01 0.00 0.00 0.01 0.02 0.03 0.07 0.10 0.17 0.20 0.15 0.09 0.06 0.06 0.06 0.07 0.08 0.08 0.14 0.25 0.32 0.43 0.37 0.21 0.16 0.26 0.37 0.41 0.53 0.92 0.50 0.53 0.62 0.51 1.12 1.20
0.03 0.00 0.00 0.00 0.00 0.00 0.00 0.01 0.01 0.01 0.02 0.06 0.11 0.17 0.21 0.19 0.13 0.09 0.09 0.09 0.07 0.08 0.09 0.09 0.11 0.12 0.15 0.33 0.33 0.32 0.35 0.48 0.36 0.56 0.58 0.82 0.91 0.55 0.63 0.79 1.10 1.30 1.16
0.01 0.00 0.00 0.00 0.00 0.00 0.00 0.02 0.04 0.07 0.09 0.12 0.15 0.17 0.13 0.07 0.05 0.08 0.11 0.12 0.11 0.13 0.15 0.18 0.22 0.24 0.23 0.30 0.45 0.39 0.46 0.59 0.60 0.86 1.10 1.14 0.96 0.85 0.94 1.11 1.18 1.21 1.24
0.03 0.00 0.00 0.00 0.02 0.04 0.05 0.08 0.09 0.07 0.06 0.06 0.10 0.07 0.06 0.09 0.05 0.09 0.11 0.12 0.12 0.16 0.21 0.30 0.36 0.38 0.40 0.40 0.39 0.41 0.45 0.58 0.72 1.01 1.14 1.14 1.09 1.07 1.15 1.20 1.20 1.22 1.30
0.11 0.04 0.04 0.08 0.08 0.07 0.08 0.08 0.09 0.10 0.13 0.11 0.11 0.11 0.11 0.12 0.12 0.16 0.24 0.22 0.34 0.41 0.42 0.49 0.52 0.55 0.69 0.94 0.98 0.97 1.04 1.13 1.26 1.32 1.43 1.46 1.45 1.43 1.40 1.31 1.22 1.15 1.08
0.22 0.19 0.17 0.14 0.14 0.15 0.20 0.20 0.18 0.17 0.17 0.16 0.18 0.22 0.17 0.18 0.19 0.19 0.28 0.48 0.54 0.52 0.59 0.67 0.68 0.97 1.17 1.28 1.25 1.25 1.26 1.28 1.26 1.21 1.23 1.14 1.04 0.95 0.85 0.78 0.71 0.64 0.60

GFSMW_prec_precacc_081.txt.gz
Total_Precipitation_Accumulation
0.02 0.03 0.02 0.02 0.01 0.06 0.04 0.10 0.25 0.23 0.37 0.34 0.22 0.29 0.34 0.54 0.37 0.41 0.44 0.91 0.96 1.68 0.90 0.45 0.16 0.14 0.17 0.19 0.15 0.12 0.06 0.03 0.01 0.00 0.01 0.01 0.00 0.00 0.00 0.00 0.00 0.00 0.00
0.01 0.01 0.00 0.00 0.01 0.05 0.04 0.02 0.04 0.10 0.19 0.24 0.24 0.12 0.13 0.21 0.29 0.35 0.44 0.59 0.75 1.00 1.28 0.71 0.46 0.20 0.19 0.18 0.12 0.10 0.07 0.05 0.01 0.00 0.01 0.02 0.02 0.01 0.00 0.00 0.00 0.00 0.00
0.00 0.00 0.00 0.00 0.01 0.01 0.01 0.02 0.02 0.05 0.07 0.14 0.25 0.18 0.21 0.19 0.25 0.41 0.61 0.44 0.47 0.74 0.96 0.80 0.58 0.36 0.23 0.13 0.04 0.05 0.05 0.01 0.02 0.00 0.00 0.01 0.02 0.01 0.00 0.00 0.00 0.00 0.00
0.00 0.00 0.01 0.01 0.02 0.03 0.03 0.06 0.04 0.04 0.03 0.04 0.07 0.07 0.14 0.13 0.14 0.14 0.28 0.47 0.27 0.46 0.87 0.78 0.64 0.41 0.24 0.21 0.09 0.06 0.07 0.05 0.02 0.02 0.01 0.00 0.03 0.10 0.11 0.02 0.01 0.00 0.00
0.00 0.00 0.01 0.01 0.02 0.04 0.04 0.03 0.04 0.05 0.03 0.04 0.03 0.05 0.07 0.10 0.08 0.05 0.07 0.31 0.47 0.30 0.61 0.72 0.74 0.46 0.34 0.27 0.25 0.17 0.17 0.16 0.22 0.14 0.05 0.03 0.02 0.02 0.13 0.11 0.05 0.01 0.00
0.03 0.04 0.05 0.02 0.03 0.05 0.05 0.06 0.05 0.05 0.09 0.09 0.09 0.05 0.10 0.08 0.06 0.06 0.08 0.13 0.31 0.70 0.79 0.84 0.70 0.68 0.51 0.47 0.48 0.49 0.31 0.21 0.20 0.29 0.17 0.17 0.15 0.09 0.06 0.05 0.06 0.10 0.05
0.00 0.01 0.02 0.02 0.02 0.06 0.04 0.03 0.06 0.16 0.14 0.10 0.09 0.11 0.09 0.09 0.08 0.11 0.21 0.24 0.24 0.51 0.68 0.78 0.71 0.65 0.67 0.54 0.46 0.49 0.40 0.36 0.30 0.31 0.35 0.31 0.22 0.13 0.10 0.14 0.10 0.13 0.11
0.00 0.01 0.03 0.05 0.06 0.04 0.03 0.02 0.08 0.20 0.22 0.17 0.14 0.16 0.21 0.21 0.23 0.29 0.44 0.47 0.36 0.33 0.54 0.70 0.80 0.63 0.56 0.50 0.44 0.43 0.44 0.45 0.44 0.41 0.35 0.32 0.26 0.21 0.21 0.28 0.34 0.31 0.21
0.04 0.05 0.02 0.03 0.06 0.05 0.05 0.09 0.10 0.10 0.15 0.18 0.17 0.22 0.29 0.32 0.44 0.46 0.38 0.39 0.30 0.18 0.24 0.38 0.56 0.58 0.61 0.74 0.76 0.66 0.53 0.52 0.40 0.33 0.28 0.21 0.13 0.18 0.19 0.17 0.20 0.26 0.26
0.00 0.01 0.01 0.00 0.01 0.01 0.07 0.07 0.04 0.07 0.14 0.18 0.17 0.28 0.42 0.43 0.42 0.33 0.43 0.39 0.39 0.42 0.48 0.49 0.54 0.74 0.84 0.77 0.69 0.55 0.40 0.36 0.28 0.24 0.27 0.26 0.19 0.17 0.22 0.22 0.22 0.28 0.35
0.01 0.00 0.01 0.02 0.01 0.02 0.05 0.11 0.16 0.36 0.36 0.46 0.53 0.45 0.47 0.63 0.70 0.63 0.60 0.59 0.57 0.58 0.61 0.63 0.55 0.42 0.40 0.46 0.52 0.55 0.58 0.53 0.43 0.38 0.35 0.30 0.32 0.36 0.33 0.33 0.32 0.30 0.33
0.03 0.03 0.04 0.03 0.04 0.07 0.07 0.07 0.12 0.22 0.41 0.49 0.69 0.92 0.78 1.05 1.58 1.63 1.27 1.48 1.49 1.16 0.92 0.71 0.48 0.31 0.20 0.17 0.20 0.28 0.30 0.32 0.37 0.33 0.32 0.28 0.34 0.43 0.37 0.31 0.26 0.20 0.16
0.06 0.05 0.07 0.10 0.12 0.20 0.26 0.33 0.35 0.51 0.70 0.81 0.86 0.87 0.75 1.13 1.04 0.72 0.54 0.43 0.53 0.49 0.30 0.22 0.17 0.12 0.08 0.06 0.06 0.11 0.21 0.29 0.23 0.22 0.21 0.16 0.15 0.13 0.11 0.11 0.10 0.10 0.13
0.14 0.13 0.13 0.16 0.21 0.34 0.45 0.48 0.54 0.67 0.63 0.52 0.54 0.45 0.37 0.43 0.42 0.34 0.26 0.22 0.19 0.18 0.17 0.15 0.16 0.12 0.07 0.06 0.12 0.14 0.14 0.15 0.15 0.12 0.09 0.10 0.09 0.09 0.09 0.12 0.11 0.12 0.13
0.11 0.18 0.17 0.16 0.17 0.23 0.29 0.31 0.32 0.35 0.37 0.31 0.26 0.24 0.31 0.25 0.22 0.16 0.16 0.17 0.19 0.27 0.23 0.22 0.13 0.13 0.16 0.20 0.21 0.18 0.18 0.12 0.09 0.07 0.06 0.10 0.15 0.15 0.13 0.15 0.15 0.20 0.21
0.13 0.13 0.11 0.11 0.11 0.12 0.10 0.14 0.17 0.17 0.14 0.10 0.16 0.18 0.16 0.19 0.22 0.20 0.23 0.19 0.17 0.21 0.24 0.27 0.28 0.29 0.33 0.47 0.36 0.20 0.08 0.06 0.06 0.06 0.06 0.07 0.13 0.07 0.11 0.11 0.13 0.14 0.17
0.11 0.11 0.11 0.09 0.09 0.07 0.04 0.08 0.10 0.09 0.08 0.10 0.08 0.07 0.08 0.10 0.11 0.18 0.17 0.18 0.22 0.25 0.24 0.32 0.41 0.46 0.46 0.62 0.35 0.33 0.15 0.13 0.15 0.12 0.11 0.10 0.16 0.29 0.08 0.20 0.23 0.21 0.32
0.53 0.17 0.11 0.05 0.04 0.04 0.03 0.04 0.06 0.07 0.06 0.05 0.07 0.07 0.06 0.07 0.10 0.12 0.12 0.15 0.20 0.29 0.33 0.36 0.34 0.28 0.28 0.45 0.43 0.49 0.27 0.15 0.11 0.11 0.15 0.15 0.14 0.26 0.32 0.18 0.24 0.30 0.47
0.57 0.75 0.23 0.11 0.06 0.01 0.01 0.02 0.03 0.03 0.03 0.04 0.03 0.04 0.06 0.07 0.07 0.09 0.15 0.24 0.30 0.30 0.26 0.19 0.19 0.19 0.19 0.44 0.37 0.35 0.19 0.16 0.19 0.23 0.30 0.38 0.23 0.56 0.53 0.30 0.30 0.39 0.59
0.37 0.34 0.46 0.27 0.18 0.15 0.04 0.02 0.02 0.01 0.02 0.02 0.02 0.02 0.03 0.06 0.11 0.22 0.24 0.20 0.15 0.11 0.12 0.13 0.13 0.29 0.17 0.42 0.33 0.28 0.13 0.15 0.18 0.25 0.38 0.77 0.39 0.44 0.33 0.22 0.16 0.39 0.75
0.22 0.23 0.15 0.12 0.12 0.14 0.17 0.12 0.04 0.02 0.01 0.02 0.03 0.07 0.11 0.18 0.21 0.16 0.09 0.06 0.06 0.06 0.07 0.08 0.08 0.14 0.25 0.32 0.43 0.37 0.21 0.16 0.26 0.37 0.41 0.53 0.92 0.50 0.53 0.62 0.51 1.12 1.20
0.14 0.08 0.10 0.04 0.01 0.00 0.01 0.03 0.05 0.07 0.07 0.09 0.12 0.18 0.22 0.20 0.14 0.09 0.10 0.10 0.07 0.08 0.09 0.09 0.11 0.12 0.15 0.33 0.33 0.32 0.35 0.48 0.36 0.56 0.58 0.82 0.91 0.55 0.63 0.79 1.10 1.30 1.16
0.05 0.00 0.00 0.00 0.00 0.00 0.00 0.02 0.04 0.07 0.09 0.13 0.17 0.19 0.14 0.08 0.06 0.08 0.11 0.12 0.12 0.13 0.16 0.18 0.22 0.25 0.23 0.30 0.45 0.39 0.46 0.59 0.60 0.86 1.10 1.14 0.96 0.85 0.94 1.11 1.18 1.21 1.25
0.05 0.00 0.00 0.00 0.02 0.04 0.05 0.08 0.09 0.07 0.06 0.06 0.10 0.07 0.06 0.09 0.05 0.09 0.12 0.12 0.12 0.16 0.22 0.30 0.36 0.38 0.41 0.40 0.39 0.41 0.45 0.59 0.72 1.01 1.14 1.14 1.09 1.07 1.15 1.20 1.20 1.22 1.30
0.20 0.05 0.04 0.08 0.08 0.07 0.08 0.08 0.09 0.10 0.13 0.11 0.11 0.11 0.11 0.12 0.12 0.16 0.25 0.23 0.34 0.41 0.42 0.49 0.52 0.55 0.70 0.95 0.98 0.97 1.05 1.13 1.26 1.32 1.43 1.47 1.45 1.43 1.40 1.31 1.22 1.15 1.08
0.29 0.21 0.17 0.14 0.14 0.15 0.20 0.20 0.18 0.17 0.17 0.16 0.18 0.22 0.17 0.18 0.19 0.19 0.29 0.48 0.54 0.53 0.60 0.67 0.69 0.97 1.18 1.28 1.25 1.25 1.26 1.28 1.26 1.21 1.23 1.14 1.04 0.95 0.85 0.78 0.71 0.64 0.60